GEFSNE_prec_meanprecacc_084.txt.gz
Total_Precipitation_Accumulation
1.17 1.22 1.28 1.26 1.31 1.43 1.55 1.58 1.56 1.51 1.51 1.50 1.25 1.09 0.99 1.00 1.09 1.14 1.25 1.03 0.67 0.50 0.44 0.43 0.46 0.50 0.54 0.64 0.75 0.86 0.98 1.07 1.16 1.27 1.42 1.53 1.61 1.73
1.30 1.39 1.39 1.33 1.38 1.45 1.50 1.61 1.71 1.72 1.62 1.48 1.30 1.18 1.10 0.95 0.97 0.94 1.00 0.87 0.63 0.52 0.45 0.41 0.39 0.39 0.42 0.48 0.54 0.62 0.71 0.88 1.02 1.12 1.22 1.31 1.41 1.50
1.20 1.22 1.21 1.24 1.29 1.25 1.33 1.46 1.62 1.75 1.62 1.53 1.45 1.40 1.32 1.22 1.09 0.89 0.76 0.67 0.60 0.56 0.48 0.43 0.41 0.40 0.39 0.38 0.42 0.48 0.55 0.70 0.85 0.93 1.04 1.18 1.29 1.38
1.21 1.13 1.06 1.12 1.21 1.22 1.32 1.35 1.41 1.61 1.61 1.60 1.59 1.61 1.50 1.32 1.22 1.08 0.89 0.76 0.73 0.66 0.55 0.47 0.41 0.40 0.38 0.36 0.40 0.43 0.51 0.58 0.70 0.80 0.85 0.88 1.00 1.18
1.15 1.09 1.01 1.01 1.05 1.14 1.24 1.30 1.30 1.37 1.50 1.54 1.58 1.65 1.63 1.43 1.24 1.13 1.03 1.04 0.96 0.78 0.60 0.50 0.44 0.40 0.39 0.36 0.40 0.47 0.59 0.61 0.61 0.68 0.76 0.82 0.85 0.91
0.90 0.85 0.89 1.00 1.05 1.04 1.02 1.07 1.12 1.22 1.31 1.38 1.48 1.60 1.65 1.58 1.35 1.23 1.22 1.17 1.10 0.84 0.69 0.57 0.48 0.40 0.36 0.32 0.32 0.42 0.55 0.62 0.67 0.69 0.72 0.78 0.83 0.87
0.71 0.57 0.58 0.75 0.88 0.91 0.85 0.89 0.93 1.01 1.07 1.17 1.29 1.44 1.54 1.61 1.42 1.24 1.21 1.28 1.25 1.12 0.96 0.77 0.62 0.53 0.50 0.46 0.39 0.37 0.39 0.47 0.58 0.71 0.84 0.95 1.02 1.03
0.55 0.51 0.50 0.52 0.55 0.57 0.61 0.66 0.72 0.80 0.92 1.08 1.21 1.30 1.33 1.41 1.49 1.46 1.41 1.37 1.39 1.36 1.34 1.26 0.98 0.88 0.84 0.79 0.61 0.39 0.29 0.34 0.45 0.56 0.79 1.03 1.26 1.36
0.45 0.49 0.40 0.36 0.39 0.39 0.40 0.38 0.41 0.47 0.60 0.81 1.03 1.13 1.25 1.26 1.45 1.51 1.52 1.62 1.66 1.65 1.59 1.66 1.38 1.11 0.96 0.87 0.74 0.51 0.36 0.30 0.37 0.47 0.55 0.74 1.01 1.32
0.41 0.43 0.43 0.45 0.45 0.45 0.43 0.42 0.38 0.36 0.38 0.45 0.67 0.92 1.12 1.33 1.38 1.47 1.53 1.61 1.66 1.56 1.48 1.58 1.52 1.38 1.16 0.87 0.74 0.62 0.49 0.41 0.39 0.46 0.46 0.48 0.58 0.79
0.45 0.45 0.45 0.47 0.45 0.34 0.38 0.41 0.42 0.43 0.35 0.35 0.45 0.68 0.88 0.99 1.19 1.38 1.50 1.42 1.39 1.23 1.04 1.10 1.23 1.29 1.33 1.17 0.87 0.77 0.62 0.47 0.44 0.45 0.44 0.44 0.46 0.49
0.62 0.59 0.47 0.41 0.36 0.26 0.32 0.42 0.42 0.42 0.45 0.41 0.36 0.44 0.59 0.74 0.80 0.92 1.11 1.20 1.11 1.08 0.90 0.76 0.75 0.84 0.98 0.98 0.84 0.78 0.79 0.67 0.49 0.43 0.44 0.47 0.51 0.48
0.74 0.72 0.64 0.44 0.32 0.27 0.28 0.37 0.40 0.43 0.54 0.58 0.56 0.56 0.67 0.79 0.76 0.74 0.82 0.93 0.95 0.83 0.75 0.73 0.71 0.59 0.56 0.64 0.69 0.63 0.67 0.76 0.73 0.59 0.48 0.48 0.56 0.63
0.89 0.86 0.78 0.54 0.39 0.33 0.32 0.32 0.29 0.31 0.43 0.55 0.59 0.57 0.61 0.71 0.78 0.74 0.75 0.78 0.83 0.77 0.70 0.69 0.73 0.67 0.52 0.44 0.45 0.44 0.45 0.52 0.65 0.83 0.87 0.84 0.72 0.69
0.98 0.99 0.82 0.63 0.53 0.42 0.39 0.40 0.36 0.35 0.45 0.50 0.51 0.52 0.53 0.62 0.78 0.87 0.89 0.86 0.84 0.75 0.64 0.57 0.60 0.67 0.59 0.46 0.38 0.34 0.34 0.43 0.55 0.73 0.82 0.89 0.96 0.95
0.94 1.00 0.88 0.74 0.65 0.57 0.51 0.49 0.47 0.47 0.53 0.54 0.55 0.59 0.61 0.67 0.74 0.80 0.86 0.86 0.82 0.71 0.60 0.54 0.51 0.55 0.59 0.51 0.42 0.39 0.38 0.46 0.55 0.70 0.85 0.91 0.92 1.00
0.98 1.04 1.06 0.95 0.84 0.74 0.70 0.71 0.70 0.65 0.59 0.63 0.67 0.68 0.67 0.67 0.71 0.73 0.75 0.77 0.72 0.62 0.51 0.51 0.52 0.54 0.51 0.46 0.43 0.39 0.36 0.36 0.39 0.48 0.64 0.78 0.90 0.98
0.94 0.99 1.08 1.07 0.99 0.90 0.84 0.85 0.83 0.78 0.72 0.72 0.72 0.71 0.69 0.66 0.68 0.70 0.70 0.69 0.67 0.61 0.51 0.43 0.43 0.48 0.52 0.49 0.39 0.31 0.27 0.25 0.26 0.32 0.42 0.48 0.55 0.65
0.85 0.91 0.99 1.03 1.00 0.97 0.91 0.89 0.86 0.85 0.83 0.79 0.75 0.74 0.72 0.67 0.64 0.65 0.64 0.65 0.66 0.64 0.58 0.48 0.38 0.31 0.34 0.36 0.33 0.27 0.24 0.18 0.18 0.22 0.30 0.33 0.36 0.44
0.79 0.85 0.89 0.92 0.92 0.93 0.92 0.92 0.89 0.89 0.84 0.81 0.75 0.73 0.71 0.65 0.64 0.63 0.58 0.55 0.58 0.60 0.61 0.51 0.41 0.31 0.23 0.25 0.29 0.27 0.24 0.22 0.16 0.15 0.16 0.18 0.21 0.22
0.76 0.79 0.80 0.80 0.84 0.86 0.86 0.88 0.87 0.82 0.77 0.76 0.73 0.67 0.65 0.61 0.60 0.59 0.58 0.56 0.55 0.55 0.52 0.44 0.36 0.39 0.37 0.33 0.33 0.36 0.33 0.27 0.23 0.16 0.14 0.13 0.15 0.18
0.70 0.72 0.68 0.67 0.71 0.76 0.79 0.82 0.79 0.77 0.75 0.69 0.66 0.62 0.57 0.54 0.52 0.52 0.51 0.49 0.47 0.49 0.49 0.52 0.48 0.41 0.41 0.36 0.30 0.30 0.34 0.33 0.29 0.24 0.17 0.13 0.12 0.11
0.64 0.58 0.54 0.56 0.60 0.62 0.64 0.65 0.67 0.69 0.66 0.62 0.63 0.59 0.52 0.51 0.50 0.50 0.47 0.44 0.45 0.50 0.56 0.59 0.55 0.44 0.40 0.41 0.37 0.31 0.31 0.32 0.32 0.29 0.23 0.15 0.09 0.06

GEFSNE_prec_meanprecacc_090.txt.gz
Total_Precipitation_Accumulation
1.18 1.22 1.28 1.26 1.31 1.43 1.55 1.59 1.57 1.51 1.51 1.50 1.26 1.10 1.01 1.02 1.11 1.16 1.27 1.06 0.71 0.55 0.48 0.48 0.52 0.59 0.64 0.74 0.85 0.97 1.09 1.18 1.27 1.38 1.51 1.60 1.67 1.76
1.31 1.40 1.39 1.33 1.38 1.45 1.50 1.62 1.72 1.73 1.62 1.48 1.31 1.19 1.11 0.96 0.98 0.96 1.02 0.89 0.65 0.55 0.48 0.45 0.43 0.44 0.50 0.56 0.62 0.71 0.80 0.96 1.11 1.20 1.30 1.39 1.47 1.54
1.20 1.22 1.22 1.25 1.30 1.25 1.34 1.46 1.63 1.76 1.63 1.53 1.45 1.41 1.33 1.24 1.10 0.90 0.79 0.69 0.62 0.58 0.50 0.45 0.44 0.44 0.43 0.45 0.49 0.55 0.63 0.77 0.93 1.01 1.11 1.24 1.35 1.43
1.22 1.14 1.06 1.12 1.21 1.23 1.32 1.35 1.41 1.62 1.62 1.60 1.59 1.61 1.51 1.33 1.23 1.10 0.91 0.78 0.74 0.68 0.57 0.49 0.43 0.43 0.41 0.41 0.46 0.51 0.57 0.65 0.78 0.88 0.92 0.94 1.05 1.23
1.16 1.09 1.01 1.01 1.05 1.14 1.26 1.31 1.30 1.37 1.51 1.55 1.59 1.66 1.63 1.44 1.25 1.14 1.05 1.06 0.97 0.80 0.62 0.52 0.46 0.43 0.42 0.40 0.46 0.54 0.67 0.68 0.68 0.74 0.82 0.87 0.91 0.96
0.90 0.85 0.89 1.00 1.05 1.04 1.03 1.07 1.13 1.22 1.32 1.39 1.48 1.61 1.65 1.59 1.36 1.24 1.23 1.18 1.11 0.86 0.72 0.59 0.50 0.43 0.39 0.35 0.37 0.49 0.63 0.69 0.73 0.74 0.79 0.84 0.88 0.92
0.71 0.58 0.58 0.75 0.89 0.92 0.86 0.90 0.94 1.02 1.08 1.17 1.29 1.44 1.55 1.62 1.44 1.26 1.22 1.29 1.26 1.13 0.97 0.79 0.64 0.55 0.53 0.49 0.43 0.42 0.45 0.55 0.65 0.78 0.91 1.02 1.08 1.08
0.56 0.51 0.50 0.52 0.55 0.57 0.62 0.66 0.73 0.81 0.93 1.08 1.21 1.30 1.33 1.42 1.50 1.48 1.43 1.38 1.39 1.37 1.36 1.29 1.01 0.91 0.87 0.82 0.65 0.44 0.35 0.40 0.52 0.63 0.86 1.10 1.33 1.42
0.45 0.49 0.40 0.36 0.40 0.40 0.40 0.39 0.42 0.48 0.60 0.82 1.03 1.13 1.25 1.26 1.46 1.53 1.54 1.64 1.67 1.68 1.62 1.71 1.43 1.16 1.00 0.92 0.81 0.57 0.42 0.36 0.43 0.54 0.62 0.81 1.09 1.38
0.41 0.43 0.44 0.45 0.46 0.46 0.44 0.43 0.38 0.36 0.38 0.46 0.67 0.92 1.12 1.33 1.39 1.48 1.56 1.64 1.68 1.59 1.52 1.64 1.58 1.44 1.22 0.92 0.80 0.70 0.57 0.47 0.45 0.52 0.53 0.54 0.64 0.85
0.45 0.45 0.45 0.47 0.45 0.35 0.38 0.41 0.42 0.44 0.36 0.36 0.46 0.68 0.88 0.99 1.20 1.39 1.52 1.45 1.40 1.24 1.08 1.18 1.32 1.36 1.41 1.24 0.93 0.83 0.70 0.57 0.53 0.54 0.52 0.51 0.54 0.56
0.62 0.59 0.48 0.41 0.36 0.26 0.32 0.43 0.42 0.43 0.46 0.42 0.37 0.45 0.60 0.74 0.81 0.93 1.13 1.22 1.13 1.10 0.93 0.82 0.85 0.95 1.08 1.06 0.91 0.85 0.85 0.76 0.61 0.57 0.57 0.57 0.61 0.56
0.75 0.72 0.65 0.44 0.32 0.27 0.28 0.37 0.40 0.43 0.54 0.58 0.57 0.57 0.68 0.80 0.77 0.75 0.83 0.95 0.97 0.86 0.79 0.80 0.79 0.71 0.68 0.75 0.78 0.69 0.72 0.82 0.81 0.71 0.63 0.62 0.66 0.71
0.89 0.87 0.78 0.54 0.39 0.33 0.32 0.32 0.29 0.31 0.43 0.55 0.59 0.57 0.62 0.71 0.79 0.76 0.77 0.80 0.85 0.79 0.75 0.76 0.82 0.78 0.63 0.55 0.56 0.53 0.52 0.59 0.72 0.91 0.99 0.98 0.85 0.81
0.98 0.99 0.82 0.63 0.53 0.43 0.39 0.40 0.36 0.35 0.45 0.51 0.51 0.52 0.53 0.63 0.81 0.91 0.93 0.90 0.88 0.78 0.67 0.61 0.67 0.79 0.73 0.57 0.49 0.45 0.44 0.51 0.62 0.81 0.91 0.99 1.06 1.06
0.94 1.00 0.88 0.74 0.65 0.57 0.51 0.49 0.47 0.47 0.53 0.54 0.55 0.59 0.61 0.68 0.76 0.84 0.91 0.91 0.87 0.74 0.64 0.57 0.56 0.64 0.73 0.64 0.53 0.50 0.48 0.56 0.63 0.77 0.93 0.99 1.01 1.09
0.98 1.04 1.06 0.95 0.84 0.75 0.71 0.72 0.71 0.66 0.60 0.63 0.67 0.69 0.68 0.68 0.73 0.77 0.81 0.82 0.77 0.65 0.54 0.55 0.57 0.62 0.63 0.60 0.56 0.51 0.47 0.46 0.49 0.56 0.71 0.86 0.97 1.05
0.94 0.99 1.08 1.07 0.99 0.91 0.85 0.86 0.85 0.79 0.73 0.74 0.73 0.72 0.70 0.67 0.70 0.74 0.75 0.74 0.72 0.66 0.55 0.48 0.49 0.57 0.65 0.63 0.52 0.43 0.40 0.37 0.38 0.44 0.51 0.56 0.62 0.72
0.85 0.91 0.99 1.04 1.00 0.97 0.92 0.90 0.87 0.87 0.85 0.80 0.76 0.75 0.73 0.68 0.66 0.68 0.68 0.71 0.71 0.70 0.65 0.56 0.45 0.38 0.43 0.48 0.44 0.37 0.36 0.30 0.31 0.36 0.43 0.43 0.43 0.50
0.79 0.85 0.90 0.93 0.93 0.93 0.93 0.93 0.91 0.91 0.86 0.82 0.76 0.74 0.72 0.67 0.66 0.66 0.61 0.60 0.63 0.66 0.68 0.59 0.47 0.36 0.30 0.34 0.38 0.36 0.34 0.35 0.29 0.29 0.29 0.31 0.32 0.30
0.76 0.80 0.81 0.81 0.84 0.87 0.87 0.90 0.89 0.84 0.80 0.79 0.75 0.68 0.66 0.62 0.62 0.62 0.61 0.60 0.61 0.60 0.57 0.49 0.40 0.46 0.46 0.43 0.45 0.47 0.42 0.39 0.41 0.31 0.26 0.25 0.26 0.28
0.71 0.73 0.69 0.68 0.72 0.77 0.80 0.83 0.80 0.79 0.77 0.72 0.69 0.64 0.58 0.56 0.55 0.55 0.55 0.53 0.51 0.54 0.55 0.58 0.56 0.51 0.50 0.44 0.38 0.41 0.47 0.45 0.46 0.46 0.34 0.27 0.22 0.20
0.66 0.61 0.56 0.58 0.61 0.63 0.66 0.67 0.69 0.72 0.68 0.64 0.65 0.61 0.55 0.53 0.53 0.54 0.52 0.50 0.50 0.54 0.62 0.67 0.64 0.54 0.49 0.49 0.45 0.41 0.43 0.46 0.47 0.46 0.38 0.29 0.22 0.18

GEFSNE_prec_meanprecacc_096.txt.gz
Total_Precipitation_Accumulation
1.18 1.22 1.28 1.26 1.31 1.43 1.55 1.59 1.57 1.51 1.51 1.50 1.26 1.10 1.01 1.02 1.11 1.16 1.27 1.07 0.72 0.56 0.51 0.51 0.55 0.62 0.69 0.82 0.94 1.06 1.19 1.29 1.39 1.49 1.62 1.71 1.77 1.86
1.31 1.40 1.39 1.33 1.38 1.45 1.50 1.62 1.72 1.73 1.62 1.48 1.31 1.19 1.11 0.97 0.99 0.96 1.03 0.90 0.66 0.56 0.49 0.46 0.45 0.47 0.53 0.60 0.68 0.78 0.89 1.05 1.20 1.30 1.40 1.48 1.56 1.63
1.20 1.22 1.22 1.25 1.30 1.25 1.34 1.46 1.63 1.76 1.63 1.53 1.45 1.41 1.33 1.24 1.10 0.91 0.79 0.70 0.62 0.58 0.51 0.46 0.45 0.45 0.45 0.47 0.52 0.59 0.69 0.84 0.99 1.09 1.19 1.33 1.43 1.51
1.22 1.14 1.06 1.12 1.21 1.23 1.32 1.35 1.41 1.62 1.62 1.60 1.59 1.61 1.51 1.33 1.23 1.10 0.91 0.79 0.75 0.68 0.58 0.50 0.43 0.44 0.42 0.43 0.49 0.53 0.61 0.70 0.84 0.94 0.98 1.01 1.13 1.30
1.16 1.09 1.01 1.01 1.05 1.14 1.26 1.31 1.30 1.37 1.51 1.55 1.59 1.66 1.63 1.44 1.25 1.14 1.05 1.06 0.98 0.80 0.63 0.53 0.46 0.43 0.42 0.41 0.48 0.57 0.69 0.71 0.72 0.80 0.88 0.93 0.97 1.03
0.90 0.85 0.89 1.00 1.05 1.04 1.03 1.07 1.13 1.23 1.32 1.39 1.48 1.61 1.65 1.59 1.36 1.24 1.23 1.18 1.11 0.86 0.73 0.60 0.51 0.43 0.40 0.36 0.39 0.52 0.67 0.74 0.79 0.80 0.84 0.89 0.94 0.98
0.71 0.58 0.58 0.75 0.89 0.92 0.86 0.90 0.94 1.02 1.08 1.18 1.29 1.44 1.55 1.62 1.44 1.26 1.22 1.29 1.26 1.14 0.98 0.79 0.65 0.56 0.53 0.50 0.43 0.44 0.49 0.60 0.71 0.85 0.98 1.08 1.13 1.13
0.56 0.51 0.50 0.52 0.55 0.57 0.62 0.66 0.73 0.81 0.93 1.09 1.21 1.30 1.33 1.42 1.50 1.48 1.43 1.38 1.39 1.37 1.36 1.29 1.02 0.91 0.87 0.82 0.66 0.46 0.36 0.44 0.58 0.70 0.93 1.18 1.41 1.48
0.45 0.49 0.40 0.36 0.40 0.40 0.40 0.39 0.42 0.48 0.60 0.82 1.04 1.14 1.25 1.26 1.46 1.53 1.54 1.64 1.67 1.68 1.63 1.71 1.43 1.16 1.00 0.92 0.82 0.58 0.44 0.38 0.46 0.60 0.70 0.90 1.17 1.47
0.41 0.43 0.44 0.45 0.46 0.46 0.44 0.43 0.38 0.36 0.38 0.46 0.67 0.92 1.12 1.33 1.39 1.48 1.56 1.64 1.68 1.59 1.52 1.64 1.58 1.45 1.22 0.92 0.81 0.72 0.60 0.51 0.49 0.56 0.58 0.62 0.73 0.94
0.45 0.45 0.45 0.47 0.45 0.35 0.38 0.41 0.42 0.44 0.36 0.36 0.46 0.68 0.88 0.99 1.20 1.39 1.52 1.45 1.41 1.24 1.08 1.18 1.32 1.37 1.41 1.25 0.94 0.85 0.74 0.62 0.59 0.60 0.57 0.57 0.61 0.66
0.62 0.59 0.48 0.41 0.36 0.26 0.32 0.43 0.42 0.43 0.46 0.42 0.38 0.45 0.60 0.74 0.81 0.93 1.13 1.23 1.14 1.10 0.93 0.82 0.85 0.96 1.09 1.07 0.92 0.86 0.87 0.79 0.67 0.65 0.65 0.64 0.68 0.64
0.75 0.72 0.65 0.44 0.32 0.27 0.28 0.37 0.40 0.43 0.54 0.58 0.57 0.57 0.68 0.80 0.77 0.75 0.83 0.95 0.97 0.86 0.79 0.81 0.79 0.72 0.69 0.76 0.79 0.71 0.75 0.85 0.84 0.75 0.71 0.72 0.76 0.79
0.89 0.87 0.78 0.54 0.39 0.33 0.32 0.32 0.29 0.31 0.43 0.55 0.59 0.57 0.62 0.72 0.79 0.76 0.78 0.80 0.85 0.80 0.75 0.77 0.83 0.79 0.65 0.56 0.58 0.55 0.54 0.61 0.75 0.94 1.03 1.06 0.97 0.93
0.99 0.99 0.82 0.63 0.53 0.43 0.39 0.40 0.36 0.35 0.46 0.51 0.51 0.52 0.53 0.63 0.81 0.91 0.93 0.91 0.89 0.79 0.68 0.62 0.68 0.81 0.75 0.59 0.51 0.47 0.47 0.55 0.66 0.85 0.96 1.05 1.13 1.16
0.94 1.00 0.88 0.74 0.65 0.57 0.51 0.49 0.47 0.47 0.53 0.55 0.55 0.59 0.62 0.68 0.76 0.85 0.91 0.92 0.87 0.75 0.65 0.59 0.58 0.66 0.75 0.67 0.56 0.54 0.52 0.60 0.67 0.83 0.99 1.07 1.09 1.17
0.98 1.04 1.06 0.95 0.84 0.75 0.71 0.72 0.71 0.66 0.60 0.64 0.67 0.69 0.68 0.68 0.73 0.78 0.81 0.83 0.78 0.67 0.56 0.58 0.60 0.65 0.67 0.64 0.61 0.55 0.52 0.52 0.54 0.63 0.79 0.94 1.06 1.14
0.94 0.99 1.09 1.07 0.99 0.91 0.85 0.86 0.85 0.80 0.74 0.74 0.73 0.73 0.71 0.68 0.70 0.74 0.76 0.76 0.74 0.69 0.59 0.51 0.52 0.60 0.69 0.67 0.57 0.50 0.46 0.43 0.45 0.53 0.60 0.64 0.70 0.80
0.85 0.91 0.99 1.04 1.01 0.98 0.92 0.90 0.87 0.87 0.85 0.80 0.76 0.76 0.74 0.69 0.67 0.69 0.69 0.72 0.73 0.73 0.70 0.62 0.51 0.42 0.47 0.51 0.48 0.42 0.44 0.39 0.40 0.47 0.55 0.52 0.51 0.57
0.79 0.85 0.90 0.94 0.94 0.94 0.93 0.94 0.91 0.91 0.86 0.82 0.77 0.74 0.73 0.67 0.67 0.68 0.64 0.62 0.66 0.70 0.73 0.64 0.54 0.42 0.35 0.41 0.46 0.41 0.40 0.46 0.42 0.41 0.41 0.43 0.45 0.44
0.77 0.80 0.81 0.82 0.85 0.87 0.87 0.90 0.89 0.84 0.80 0.79 0.75 0.69 0.67 0.63 0.63 0.63 0.62 0.62 0.64 0.64 0.62 0.53 0.46 0.55 0.55 0.52 0.54 0.56 0.49 0.48 0.54 0.47 0.42 0.40 0.42 0.43
0.72 0.74 0.70 0.69 0.73 0.77 0.80 0.83 0.81 0.79 0.78 0.73 0.70 0.65 0.59 0.57 0.56 0.56 0.56 0.54 0.53 0.56 0.58 0.63 0.63 0.59 0.57 0.50 0.45 0.49 0.57 0.55 0.57 0.63 0.55 0.49 0.40 0.34
0.68 0.62 0.57 0.58 0.61 0.64 0.66 0.67 0.69 0.73 0.69 0.65 0.67 0.63 0.56 0.55 0.53 0.55 0.53 0.51 0.51 0.56 0.65 0.70 0.69 0.59 0.54 0.55 0.51 0.48 0.53 0.58 0.58 0.59 0.55 0.49 0.45 0.38

GEFSNE_prec_meanprecacc_102.txt.gz
Total_Precipitation_Accumulation
1.18 1.22 1.28 1.27 1.31 1.44 1.56 1.60 1.58 1.52 1.51 1.51 1.26 1.10 1.01 1.02 1.12 1.17 1.28 1.08 0.73 0.58 0.52 0.52 0.57 0.64 0.72 0.85 0.99 1.13 1.25 1.37 1.48 1.62 1.79 1.90 1.97 2.02
1.31 1.40 1.40 1.34 1.38 1.45 1.50 1.62 1.73 1.74 1.63 1.48 1.31 1.19 1.11 0.97 0.99 0.96 1.03 0.91 0.67 0.56 0.50 0.47 0.46 0.48 0.54 0.61 0.70 0.82 0.93 1.11 1.28 1.39 1.50 1.60 1.70 1.77
1.20 1.23 1.22 1.25 1.30 1.25 1.34 1.47 1.63 1.77 1.64 1.53 1.45 1.41 1.33 1.24 1.10 0.91 0.79 0.70 0.62 0.59 0.51 0.46 0.45 0.46 0.46 0.48 0.53 0.60 0.71 0.88 1.04 1.14 1.26 1.41 1.52 1.60
1.22 1.14 1.07 1.13 1.22 1.23 1.32 1.35 1.42 1.63 1.63 1.61 1.60 1.62 1.52 1.34 1.23 1.10 0.91 0.79 0.75 0.69 0.58 0.50 0.44 0.44 0.43 0.44 0.49 0.54 0.63 0.73 0.88 0.98 1.03 1.06 1.19 1.37
1.16 1.09 1.01 1.02 1.06 1.15 1.26 1.31 1.31 1.38 1.52 1.56 1.59 1.66 1.64 1.44 1.26 1.14 1.05 1.06 0.98 0.81 0.63 0.53 0.47 0.43 0.42 0.41 0.49 0.58 0.70 0.72 0.74 0.83 0.92 0.99 1.03 1.09
0.90 0.85 0.89 1.00 1.06 1.05 1.04 1.08 1.14 1.24 1.33 1.40 1.49 1.61 1.66 1.59 1.37 1.25 1.23 1.19 1.12 0.86 0.73 0.60 0.51 0.44 0.40 0.36 0.39 0.53 0.68 0.75 0.81 0.82 0.86 0.92 0.99 1.04
0.71 0.58 0.58 0.75 0.89 0.92 0.86 0.90 0.95 1.03 1.09 1.19 1.30 1.45 1.55 1.62 1.44 1.27 1.22 1.30 1.26 1.14 0.98 0.80 0.66 0.58 0.54 0.51 0.44 0.44 0.50 0.61 0.72 0.86 1.01 1.11 1.16 1.17
0.56 0.51 0.50 0.52 0.55 0.57 0.62 0.66 0.74 0.82 0.94 1.10 1.23 1.31 1.34 1.43 1.52 1.50 1.44 1.39 1.40 1.38 1.37 1.30 1.03 0.93 0.89 0.83 0.67 0.46 0.37 0.44 0.58 0.71 0.95 1.21 1.44 1.52
0.46 0.49 0.40 0.36 0.40 0.40 0.40 0.39 0.42 0.48 0.60 0.83 1.05 1.15 1.26 1.28 1.49 1.55 1.57 1.67 1.69 1.70 1.65 1.72 1.45 1.18 1.01 0.93 0.82 0.59 0.44 0.39 0.47 0.60 0.71 0.92 1.20 1.52
0.41 0.44 0.44 0.45 0.46 0.46 0.45 0.43 0.39 0.37 0.39 0.47 0.68 0.94 1.15 1.36 1.43 1.51 1.59 1.67 1.71 1.60 1.54 1.65 1.59 1.46 1.23 0.94 0.82 0.72 0.60 0.51 0.49 0.56 0.58 0.63 0.76 0.99
0.45 0.46 0.46 0.47 0.46 0.35 0.38 0.42 0.43 0.44 0.36 0.36 0.46 0.69 0.89 1.00 1.21 1.41 1.54 1.47 1.42 1.26 1.10 1.20 1.33 1.38 1.42 1.26 0.95 0.86 0.74 0.62 0.59 0.60 0.58 0.58 0.62 0.69
0.63 0.60 0.48 0.42 0.37 0.27 0.33 0.43 0.43 0.43 0.48 0.44 0.38 0.46 0.60 0.74 0.81 0.93 1.15 1.26 1.16 1.12 0.95 0.85 0.87 0.98 1.11 1.08 0.93 0.87 0.88 0.80 0.67 0.65 0.66 0.65 0.70 0.67
0.76 0.73 0.65 0.45 0.32 0.28 0.28 0.37 0.40 0.44 0.55 0.60 0.59 0.59 0.70 0.82 0.79 0.76 0.85 0.98 1.00 0.88 0.82 0.86 0.83 0.75 0.73 0.78 0.80 0.72 0.76 0.86 0.85 0.76 0.71 0.73 0.78 0.82
0.90 0.87 0.79 0.55 0.39 0.33 0.32 0.32 0.29 0.31 0.43 0.55 0.59 0.58 0.63 0.73 0.80 0.78 0.80 0.83 0.87 0.82 0.80 0.84 0.90 0.85 0.71 0.61 0.61 0.58 0.57 0.64 0.77 0.96 1.04 1.08 0.98 0.95
0.99 0.99 0.82 0.63 0.53 0.43 0.39 0.41 0.37 0.35 0.46 0.51 0.52 0.53 0.54 0.65 0.83 0.93 0.95 0.93 0.91 0.80 0.70 0.66 0.73 0.87 0.82 0.65 0.55 0.52 0.51 0.59 0.70 0.87 0.98 1.08 1.15 1.18
0.94 1.00 0.88 0.74 0.65 0.57 0.51 0.49 0.47 0.47 0.54 0.55 0.56 0.61 0.64 0.71 0.79 0.87 0.93 0.94 0.90 0.76 0.67 0.62 0.62 0.73 0.81 0.73 0.62 0.59 0.57 0.65 0.72 0.87 1.04 1.11 1.12 1.20
0.99 1.04 1.07 0.96 0.84 0.75 0.71 0.73 0.72 0.67 0.61 0.65 0.69 0.71 0.70 0.71 0.76 0.81 0.84 0.86 0.81 0.70 0.60 0.63 0.66 0.72 0.74 0.72 0.68 0.61 0.57 0.57 0.59 0.69 0.85 0.99 1.10 1.17
0.95 1.00 1.10 1.09 1.01 0.93 0.87 0.88 0.88 0.82 0.76 0.77 0.76 0.75 0.73 0.71 0.73 0.78 0.79 0.79 0.77 0.72 0.63 0.57 0.61 0.69 0.76 0.73 0.62 0.55 0.52 0.48 0.51 0.60 0.66 0.69 0.74 0.83
0.85 0.92 1.01 1.07 1.03 1.00 0.94 0.93 0.90 0.90 0.89 0.84 0.80 0.79 0.76 0.71 0.70 0.72 0.72 0.76 0.76 0.77 0.75 0.70 0.61 0.52 0.54 0.56 0.52 0.45 0.48 0.46 0.50 0.55 0.62 0.58 0.55 0.61
0.80 0.86 0.91 0.96 0.96 0.97 0.96 0.97 0.94 0.94 0.90 0.86 0.80 0.77 0.75 0.70 0.70 0.71 0.67 0.66 0.71 0.76 0.80 0.74 0.64 0.51 0.43 0.50 0.55 0.51 0.46 0.54 0.54 0.52 0.51 0.51 0.51 0.50
0.78 0.82 0.83 0.84 0.87 0.91 0.90 0.93 0.92 0.87 0.84 0.84 0.79 0.73 0.70 0.67 0.66 0.67 0.67 0.67 0.68 0.70 0.69 0.61 0.55 0.64 0.67 0.66 0.66 0.65 0.59 0.55 0.64 0.60 0.56 0.53 0.52 0.51
0.75 0.77 0.73 0.72 0.76 0.81 0.84 0.87 0.84 0.83 0.83 0.78 0.75 0.70 0.64 0.61 0.59 0.60 0.61 0.61 0.61 0.62 0.65 0.72 0.74 0.71 0.69 0.61 0.55 0.61 0.69 0.66 0.65 0.71 0.66 0.62 0.54 0.45
0.71 0.66 0.61 0.62 0.65 0.69 0.71 0.73 0.75 0.78 0.75 0.72 0.74 0.69 0.62 0.60 0.59 0.60 0.58 0.57 0.59 0.64 0.73 0.80 0.80 0.70 0.66 0.66 0.64 0.63 0.67 0.72 0.71 0.69 0.64 0.58 0.54 0.48

GEFSNE_prec_meanprecacc_108.txt.gz
Total_Precipitation_Accumulation
1.18 1.23 1.29 1.27 1.31 1.44 1.56 1.60 1.58 1.52 1.52 1.51 1.26 1.10 1.01 1.03 1.12 1.18 1.29 1.09 0.74 0.58 0.52 0.52 0.57 0.65 0.73 0.87 1.01 1.16 1.29 1.41 1.54 1.69 1.88 2.03 2.12 2.19
1.32 1.40 1.40 1.34 1.38 1.45 1.50 1.62 1.73 1.74 1.63 1.48 1.31 1.19 1.11 0.97 0.99 0.96 1.03 0.91 0.67 0.56 0.50 0.47 0.46 0.48 0.54 0.62 0.70 0.83 0.95 1.13 1.30 1.41 1.54 1.66 1.78 1.87
1.21 1.23 1.22 1.26 1.31 1.26 1.34 1.47 1.63 1.77 1.64 1.53 1.45 1.41 1.34 1.24 1.11 0.91 0.79 0.70 0.62 0.59 0.51 0.46 0.46 0.46 0.46 0.48 0.53 0.61 0.72 0.88 1.05 1.16 1.28 1.44 1.55 1.65
1.22 1.15 1.07 1.13 1.23 1.24 1.33 1.36 1.42 1.64 1.63 1.61 1.60 1.62 1.53 1.35 1.25 1.11 0.91 0.79 0.75 0.69 0.58 0.50 0.44 0.44 0.43 0.44 0.49 0.54 0.63 0.73 0.88 0.99 1.04 1.08 1.21 1.40
1.16 1.09 1.02 1.02 1.07 1.17 1.28 1.32 1.32 1.38 1.53 1.57 1.60 1.67 1.65 1.45 1.27 1.15 1.05 1.07 0.98 0.81 0.63 0.53 0.47 0.43 0.42 0.41 0.49 0.58 0.71 0.73 0.74 0.83 0.93 1.00 1.05 1.11
0.90 0.85 0.89 1.00 1.06 1.06 1.06 1.10 1.15 1.25 1.34 1.41 1.50 1.62 1.67 1.60 1.38 1.25 1.24 1.20 1.12 0.86 0.73 0.60 0.51 0.44 0.40 0.36 0.39 0.53 0.68 0.75 0.81 0.83 0.87 0.93 1.00 1.05
0.71 0.58 0.58 0.75 0.89 0.92 0.86 0.91 0.96 1.04 1.10 1.20 1.31 1.46 1.56 1.64 1.46 1.28 1.24 1.31 1.27 1.14 0.98 0.80 0.66 0.58 0.55 0.51 0.44 0.44 0.50 0.61 0.72 0.87 1.02 1.12 1.17 1.18
0.56 0.52 0.51 0.52 0.55 0.57 0.62 0.67 0.74 0.82 0.95 1.11 1.23 1.32 1.35 1.45 1.54 1.51 1.45 1.41 1.41 1.38 1.38 1.31 1.03 0.94 0.90 0.84 0.67 0.46 0.37 0.44 0.58 0.71 0.95 1.22 1.46 1.53
0.47 0.51 0.41 0.36 0.41 0.41 0.42 0.40 0.42 0.48 0.60 0.83 1.05 1.15 1.27 1.30 1.51 1.57 1.59 1.70 1.71 1.70 1.67 1.72 1.45 1.19 1.01 0.93 0.83 0.59 0.45 0.39 0.47 0.60 0.71 0.92 1.21 1.53
0.42 0.45 0.46 0.47 0.48 0.49 0.47 0.45 0.40 0.38 0.39 0.47 0.69 0.94 1.15 1.38 1.46 1.54 1.62 1.69 1.72 1.61 1.55 1.66 1.59 1.47 1.24 0.94 0.83 0.73 0.61 0.52 0.50 0.57 0.59 0.63 0.76 0.99
0.46 0.48 0.49 0.50 0.48 0.37 0.40 0.43 0.44 0.45 0.37 0.37 0.47 0.69 0.89 1.00 1.22 1.42 1.55 1.48 1.43 1.26 1.11 1.21 1.33 1.39 1.43 1.27 0.96 0.87 0.75 0.63 0.60 0.60 0.58 0.58 0.63 0.69
0.65 0.62 0.50 0.43 0.38 0.28 0.34 0.46 0.45 0.45 0.50 0.46 0.40 0.47 0.61 0.75 0.81 0.93 1.15 1.26 1.17 1.13 0.96 0.86 0.87 0.99 1.13 1.08 0.93 0.88 0.89 0.80 0.67 0.65 0.66 0.65 0.71 0.67
0.77 0.73 0.66 0.47 0.33 0.28 0.29 0.39 0.42 0.45 0.58 0.62 0.61 0.61 0.72 0.84 0.81 0.77 0.86 0.99 1.01 0.89 0.82 0.89 0.86 0.78 0.76 0.80 0.82 0.74 0.78 0.90 0.87 0.77 0.72 0.73 0.78 0.82
0.91 0.88 0.80 0.56 0.40 0.34 0.32 0.32 0.30 0.32 0.44 0.56 0.60 0.59 0.64 0.74 0.83 0.81 0.85 0.88 0.91 0.84 0.82 0.88 0.95 0.90 0.75 0.65 0.64 0.60 0.59 0.68 0.82 1.01 1.09 1.10 0.99 0.96
1.00 1.01 0.83 0.64 0.54 0.43 0.40 0.41 0.37 0.35 0.46 0.52 0.52 0.53 0.55 0.66 0.86 0.98 1.00 1.00 0.97 0.83 0.72 0.69 0.78 0.91 0.88 0.70 0.58 0.55 0.55 0.63 0.74 0.92 1.04 1.14 1.21 1.21
0.95 1.01 0.89 0.74 0.65 0.57 0.52 0.50 0.47 0.48 0.54 0.56 0.57 0.62 0.65 0.73 0.81 0.90 0.98 1.01 0.97 0.80 0.70 0.66 0.68 0.80 0.88 0.77 0.66 0.62 0.61 0.69 0.76 0.93 1.10 1.17 1.20 1.28
1.00 1.06 1.08 0.97 0.86 0.76 0.73 0.75 0.75 0.70 0.64 0.68 0.72 0.75 0.74 0.75 0.81 0.86 0.92 0.94 0.89 0.75 0.65 0.69 0.74 0.82 0.83 0.80 0.75 0.64 0.61 0.60 0.63 0.75 0.93 1.05 1.15 1.23
0.95 1.00 1.10 1.10 1.03 0.96 0.91 0.93 0.94 0.89 0.83 0.84 0.83 0.83 0.81 0.78 0.80 0.85 0.87 0.87 0.84 0.78 0.68 0.64 0.71 0.82 0.88 0.81 0.66 0.57 0.55 0.51 0.55 0.67 0.75 0.76 0.78 0.88
0.86 0.93 1.02 1.09 1.07 1.04 0.99 0.98 0.95 0.97 0.97 0.93 0.88 0.88 0.85 0.80 0.77 0.80 0.81 0.84 0.84 0.83 0.81 0.78 0.71 0.64 0.64 0.61 0.56 0.48 0.51 0.51 0.57 0.63 0.69 0.64 0.60 0.67
0.82 0.88 0.94 0.99 1.01 1.02 1.02 1.02 0.99 1.01 0.98 0.94 0.89 0.87 0.85 0.79 0.79 0.79 0.75 0.75 0.80 0.85 0.88 0.81 0.71 0.60 0.51 0.58 0.64 0.59 0.50 0.59 0.62 0.59 0.57 0.59 0.59 0.57
0.81 0.85 0.87 0.88 0.92 0.95 0.96 1.00 0.99 0.95 0.92 0.94 0.89 0.84 0.82 0.80 0.78 0.77 0.77 0.77 0.77 0.80 0.77 0.67 0.62 0.72 0.79 0.78 0.73 0.68 0.65 0.60 0.68 0.68 0.65 0.63 0.62 0.60
0.78 0.81 0.77 0.76 0.81 0.86 0.90 0.94 0.93 0.93 0.93 0.89 0.86 0.81 0.77 0.75 0.72 0.72 0.74 0.74 0.73 0.73 0.74 0.81 0.85 0.84 0.81 0.70 0.61 0.67 0.77 0.73 0.71 0.74 0.70 0.68 0.62 0.54
0.75 0.70 0.67 0.68 0.72 0.76 0.78 0.81 0.84 0.89 0.87 0.84 0.86 0.81 0.75 0.74 0.73 0.74 0.71 0.71 0.73 0.77 0.85 0.91 0.91 0.82 0.76 0.77 0.73 0.72 0.75 0.80 0.82 0.79 0.69 0.62 0.57 0.51

GEFSNE_prec_meanprecacc_114.txt.gz
Total_Precipitation_Accumulation
1.18 1.23 1.29 1.27 1.31 1.44 1.56 1.60 1.58 1.52 1.52 1.51 1.26 1.11 1.02 1.03 1.12 1.18 1.29 1.09 0.74 0.58 0.52 0.52 0.57 0.65 0.73 0.87 1.01 1.17 1.31 1.44 1.57 1.73 1.94 2.11 2.22 2.31
1.32 1.40 1.40 1.34 1.38 1.45 1.50 1.62 1.73 1.74 1.63 1.48 1.31 1.19 1.11 0.97 0.99 0.96 1.03 0.91 0.67 0.56 0.50 0.47 0.46 0.48 0.54 0.62 0.70 0.83 0.96 1.14 1.32 1.44 1.57 1.68 1.81 1.92
1.21 1.23 1.22 1.26 1.31 1.26 1.34 1.47 1.63 1.77 1.64 1.53 1.45 1.41 1.34 1.24 1.11 0.91 0.79 0.70 0.62 0.59 0.51 0.46 0.46 0.46 0.46 0.48 0.53 0.61 0.72 0.88 1.05 1.17 1.29 1.46 1.58 1.67
1.22 1.15 1.07 1.14 1.23 1.24 1.33 1.36 1.42 1.64 1.64 1.61 1.60 1.62 1.53 1.35 1.25 1.11 0.91 0.79 0.75 0.69 0.58 0.50 0.44 0.44 0.43 0.44 0.49 0.54 0.63 0.74 0.88 0.99 1.04 1.08 1.22 1.41
1.16 1.09 1.02 1.02 1.07 1.17 1.28 1.32 1.32 1.39 1.53 1.57 1.60 1.67 1.65 1.45 1.27 1.15 1.05 1.07 0.98 0.81 0.63 0.53 0.47 0.43 0.42 0.41 0.49 0.58 0.71 0.73 0.74 0.83 0.93 1.00 1.05 1.11
0.90 0.86 0.90 1.01 1.07 1.07 1.06 1.10 1.15 1.25 1.35 1.41 1.50 1.62 1.67 1.60 1.38 1.26 1.24 1.20 1.12 0.86 0.73 0.60 0.51 0.44 0.40 0.36 0.39 0.53 0.68 0.75 0.81 0.83 0.87 0.93 1.00 1.05
0.72 0.59 0.59 0.75 0.90 0.93 0.87 0.91 0.96 1.05 1.10 1.20 1.31 1.46 1.56 1.64 1.46 1.28 1.24 1.31 1.27 1.14 0.98 0.80 0.66 0.58 0.55 0.51 0.44 0.44 0.50 0.61 0.72 0.87 1.02 1.12 1.17 1.18
0.57 0.52 0.52 0.53 0.56 0.58 0.62 0.67 0.74 0.83 0.95 1.11 1.23 1.32 1.35 1.45 1.54 1.51 1.45 1.41 1.41 1.38 1.38 1.31 1.03 0.94 0.90 0.84 0.67 0.46 0.37 0.44 0.58 0.71 0.95 1.22 1.46 1.53
0.47 0.51 0.42 0.37 0.41 0.42 0.42 0.40 0.42 0.48 0.61 0.83 1.05 1.15 1.27 1.30 1.51 1.57 1.59 1.70 1.71 1.70 1.67 1.72 1.45 1.19 1.01 0.93 0.83 0.60 0.45 0.39 0.47 0.60 0.71 0.92 1.21 1.53
0.42 0.46 0.47 0.48 0.49 0.50 0.48 0.46 0.40 0.38 0.40 0.48 0.69 0.94 1.15 1.38 1.46 1.54 1.62 1.69 1.72 1.61 1.55 1.66 1.59 1.47 1.24 0.94 0.83 0.73 0.61 0.52 0.50 0.57 0.59 0.63 0.77 0.99
0.47 0.49 0.50 0.51 0.50 0.38 0.41 0.44 0.44 0.46 0.37 0.37 0.47 0.69 0.89 1.00 1.22 1.43 1.56 1.49 1.43 1.26 1.11 1.22 1.33 1.39 1.43 1.27 0.96 0.87 0.75 0.63 0.60 0.60 0.58 0.58 0.63 0.70
0.68 0.64 0.51 0.44 0.39 0.29 0.35 0.47 0.45 0.45 0.50 0.47 0.41 0.47 0.61 0.75 0.81 0.94 1.15 1.27 1.17 1.13 0.96 0.86 0.88 0.99 1.13 1.08 0.93 0.88 0.89 0.80 0.67 0.66 0.66 0.65 0.71 0.67
0.83 0.78 0.70 0.50 0.35 0.30 0.31 0.40 0.42 0.46 0.58 0.63 0.62 0.61 0.72 0.84 0.81 0.78 0.87 0.99 1.02 0.89 0.82 0.89 0.86 0.78 0.76 0.80 0.82 0.74 0.78 0.90 0.87 0.77 0.72 0.74 0.79 0.82
0.99 0.94 0.84 0.60 0.42 0.35 0.33 0.33 0.30 0.32 0.44 0.56 0.60 0.59 0.64 0.74 0.83 0.82 0.85 0.89 0.92 0.85 0.82 0.90 0.96 0.91 0.76 0.65 0.64 0.60 0.59 0.68 0.82 1.01 1.09 1.11 1.00 0.96
1.05 1.04 0.85 0.66 0.55 0.44 0.40 0.41 0.37 0.36 0.46 0.52 0.53 0.54 0.55 0.66 0.86 0.99 1.01 1.02 0.99 0.85 0.73 0.71 0.81 0.94 0.90 0.71 0.58 0.55 0.55 0.63 0.75 0.93 1.04 1.15 1.22 1.22
0.97 1.03 0.91 0.76 0.67 0.58 0.52 0.50 0.48 0.48 0.55 0.57 0.58 0.62 0.65 0.73 0.82 0.91 1.00 1.03 0.99 0.81 0.72 0.69 0.72 0.85 0.91 0.79 0.67 0.62 0.62 0.69 0.77 0.93 1.10 1.18 1.21 1.29
1.03 1.08 1.10 0.99 0.87 0.78 0.74 0.76 0.76 0.71 0.66 0.69 0.73 0.75 0.75 0.76 0.82 0.88 0.95 0.98 0.92 0.77 0.66 0.71 0.78 0.88 0.88 0.85 0.78 0.65 0.61 0.61 0.64 0.75 0.94 1.06 1.16 1.24
1.00 1.04 1.13 1.13 1.05 0.97 0.92 0.95 0.95 0.90 0.84 0.86 0.85 0.84 0.82 0.80 0.83 0.88 0.91 0.91 0.87 0.80 0.70 0.65 0.74 0.87 0.92 0.84 0.68 0.59 0.55 0.51 0.56 0.68 0.75 0.77 0.78 0.88
0.88 0.95 1.04 1.11 1.08 1.05 1.00 0.99 0.96 0.98 0.99 0.95 0.91 0.91 0.89 0.83 0.82 0.84 0.86 0.89 0.88 0.86 0.84 0.81 0.76 0.69 0.67 0.62 0.56 0.50 0.53 0.52 0.58 0.64 0.70 0.65 0.60 0.67
0.83 0.89 0.95 1.00 1.01 1.03 1.03 1.03 1.00 1.02 1.00 0.97 0.93 0.92 0.91 0.86 0.85 0.86 0.83 0.83 0.87 0.90 0.92 0.85 0.75 0.64 0.55 0.60 0.65 0.60 0.52 0.61 0.63 0.59 0.58 0.60 0.60 0.57
0.82 0.86 0.87 0.88 0.92 0.96 0.96 1.00 1.00 0.95 0.93 0.96 0.92 0.87 0.87 0.86 0.84 0.84 0.84 0.85 0.85 0.87 0.83 0.71 0.65 0.77 0.85 0.84 0.76 0.69 0.66 0.61 0.69 0.69 0.66 0.64 0.63 0.61
0.79 0.82 0.78 0.77 0.81 0.87 0.91 0.96 0.95 0.95 0.96 0.93 0.90 0.86 0.83 0.81 0.79 0.80 0.82 0.83 0.82 0.81 0.81 0.86 0.90 0.91 0.89 0.75 0.64 0.68 0.78 0.74 0.72 0.75 0.71 0.69 0.63 0.55
0.75 0.71 0.67 0.68 0.73 0.77 0.81 0.84 0.88 0.93 0.91 0.88 0.91 0.87 0.81 0.81 0.80 0.81 0.78 0.79 0.81 0.85 0.92 0.98 0.96 0.87 0.82 0.81 0.77 0.74 0.77 0.81 0.83 0.80 0.70 0.63 0.59 0.52

GEFSNE_prec_meanprecacc_120.txt.gz
Total_Precipitation_Accumulation
1.18 1.23 1.29 1.27 1.31 1.44 1.56 1.60 1.58 1.52 1.52 1.51 1.26 1.11 1.02 1.03 1.12 1.18 1.29 1.09 0.74 0.58 0.52 0.52 0.57 0.65 0.73 0.87 1.01 1.17 1.31 1.45 1.59 1.76 1.98 2.17 2.31 2.44
1.32 1.40 1.40 1.34 1.38 1.45 1.50 1.62 1.73 1.74 1.63 1.48 1.31 1.19 1.11 0.97 0.99 0.96 1.03 0.91 0.67 0.56 0.50 0.47 0.46 0.48 0.54 0.62 0.70 0.83 0.96 1.14 1.32 1.45 1.58 1.71 1.84 1.97
1.21 1.23 1.22 1.26 1.31 1.26 1.34 1.47 1.63 1.77 1.64 1.53 1.45 1.41 1.34 1.24 1.11 0.91 0.79 0.70 0.62 0.59 0.51 0.46 0.46 0.46 0.46 0.48 0.53 0.61 0.72 0.88 1.05 1.17 1.29 1.47 1.60 1.71
1.22 1.15 1.07 1.14 1.23 1.25 1.33 1.36 1.43 1.64 1.64 1.61 1.60 1.62 1.53 1.35 1.25 1.11 0.91 0.79 0.75 0.69 0.58 0.50 0.44 0.44 0.43 0.44 0.49 0.54 0.63 0.74 0.88 0.99 1.04 1.08 1.23 1.43
1.17 1.10 1.03 1.03 1.08 1.18 1.29 1.33 1.32 1.39 1.54 1.58 1.60 1.67 1.65 1.45 1.27 1.15 1.05 1.07 0.98 0.81 0.63 0.53 0.47 0.43 0.42 0.41 0.49 0.58 0.71 0.73 0.74 0.83 0.93 1.00 1.05 1.11
0.92 0.87 0.90 1.01 1.07 1.07 1.06 1.10 1.15 1.26 1.35 1.42 1.50 1.62 1.67 1.60 1.38 1.26 1.24 1.20 1.12 0.86 0.73 0.60 0.51 0.44 0.40 0.36 0.39 0.53 0.68 0.75 0.81 0.83 0.87 0.93 1.00 1.05
0.73 0.59 0.59 0.76 0.90 0.93 0.87 0.91 0.96 1.05 1.10 1.20 1.31 1.46 1.56 1.64 1.46 1.28 1.24 1.31 1.27 1.14 0.98 0.80 0.66 0.58 0.55 0.51 0.44 0.44 0.50 0.61 0.72 0.87 1.02 1.12 1.17 1.18
0.59 0.54 0.53 0.54 0.56 0.58 0.63 0.68 0.75 0.84 0.96 1.11 1.24 1.32 1.35 1.45 1.54 1.51 1.45 1.41 1.41 1.38 1.38 1.31 1.04 0.94 0.90 0.84 0.67 0.46 0.37 0.44 0.58 0.71 0.95 1.22 1.46 1.53
0.50 0.54 0.43 0.37 0.42 0.42 0.43 0.41 0.43 0.49 0.61 0.84 1.06 1.15 1.27 1.30 1.52 1.57 1.59 1.70 1.71 1.70 1.67 1.72 1.45 1.19 1.01 0.93 0.83 0.60 0.45 0.39 0.47 0.60 0.71 0.92 1.21 1.53
0.45 0.48 0.48 0.49 0.50 0.51 0.49 0.46 0.41 0.38 0.40 0.49 0.70 0.95 1.16 1.39 1.46 1.54 1.62 1.69 1.72 1.61 1.55 1.66 1.59 1.47 1.24 0.94 0.83 0.73 0.61 0.52 0.50 0.57 0.59 0.63 0.77 0.99
0.51 0.51 0.52 0.52 0.51 0.41 0.43 0.45 0.45 0.46 0.38 0.39 0.49 0.70 0.90 1.01 1.23 1.44 1.56 1.49 1.43 1.26 1.11 1.22 1.34 1.39 1.43 1.27 0.97 0.87 0.75 0.63 0.60 0.60 0.58 0.58 0.63 0.70
0.73 0.68 0.54 0.47 0.42 0.32 0.37 0.49 0.47 0.46 0.52 0.48 0.42 0.48 0.62 0.76 0.83 0.95 1.17 1.28 1.18 1.13 0.96 0.87 0.88 1.00 1.14 1.09 0.94 0.89 0.89 0.81 0.68 0.66 0.66 0.65 0.71 0.67
0.88 0.82 0.74 0.55 0.40 0.34 0.34 0.42 0.45 0.48 0.61 0.65 0.63 0.62 0.73 0.85 0.82 0.78 0.88 1.00 1.03 0.90 0.83 0.90 0.86 0.79 0.77 0.80 0.82 0.74 0.79 0.90 0.88 0.78 0.72 0.74 0.79 0.82
1.05 1.01 0.92 0.69 0.50 0.42 0.39 0.38 0.35 0.36 0.47 0.58 0.62 0.60 0.64 0.75 0.84 0.82 0.86 0.89 0.93 0.85 0.83 0.90 0.97 0.92 0.77 0.66 0.64 0.60 0.59 0.68 0.83 1.01 1.09 1.11 1.00 0.96
1.13 1.13 0.93 0.73 0.61 0.49 0.45 0.45 0.40 0.38 0.48 0.54 0.54 0.55 0.56 0.67 0.88 1.00 1.03 1.03 1.00 0.85 0.73 0.72 0.82 0.96 0.91 0.72 0.59 0.55 0.56 0.63 0.75 0.93 1.05 1.15 1.22 1.22
1.03 1.08 0.95 0.80 0.70 0.61 0.55 0.53 0.50 0.50 0.57 0.58 0.59 0.63 0.66 0.75 0.84 0.93 1.02 1.05 1.02 0.83 0.73 0.71 0.75 0.88 0.94 0.81 0.69 0.63 0.62 0.70 0.77 0.94 1.11 1.19 1.21 1.29
1.08 1.12 1.14 1.02 0.90 0.80 0.77 0.79 0.79 0.73 0.68 0.71 0.75 0.77 0.76 0.77 0.84 0.90 0.96 0.99 0.94 0.78 0.67 0.73 0.81 0.91 0.91 0.87 0.80 0.66 0.62 0.62 0.64 0.76 0.95 1.07 1.16 1.24
1.04 1.08 1.17 1.16 1.08 1.00 0.96 0.98 0.98 0.93 0.87 0.87 0.86 0.85 0.83 0.81 0.83 0.88 0.91 0.92 0.89 0.81 0.72 0.68 0.79 0.91 0.96 0.86 0.70 0.61 0.58 0.53 0.57 0.69 0.77 0.79 0.79 0.89
0.91 0.98 1.07 1.14 1.11 1.08 1.03 1.01 0.98 1.00 1.01 0.97 0.92 0.92 0.89 0.84 0.82 0.85 0.86 0.90 0.89 0.88 0.85 0.83 0.79 0.76 0.74 0.65 0.58 0.52 0.56 0.55 0.60 0.66 0.71 0.66 0.62 0.68
0.84 0.91 0.96 1.02 1.03 1.05 1.04 1.04 1.02 1.03 1.01 0.99 0.94 0.93 0.92 0.86 0.86 0.87 0.83 0.84 0.89 0.92 0.94 0.87 0.78 0.68 0.59 0.63 0.67 0.62 0.54 0.63 0.65 0.61 0.59 0.62 0.61 0.59
0.83 0.87 0.88 0.89 0.93 0.97 0.97 1.01 1.00 0.96 0.94 0.97 0.93 0.88 0.88 0.87 0.86 0.86 0.86 0.87 0.88 0.90 0.87 0.75 0.69 0.82 0.91 0.90 0.80 0.71 0.67 0.63 0.71 0.70 0.68 0.66 0.64 0.61
0.80 0.83 0.79 0.78 0.83 0.88 0.92 0.97 0.96 0.96 0.97 0.94 0.91 0.88 0.85 0.84 0.81 0.82 0.85 0.86 0.86 0.86 0.85 0.90 0.94 0.96 0.94 0.82 0.69 0.71 0.79 0.75 0.74 0.77 0.73 0.71 0.65 0.56
0.76 0.72 0.68 0.70 0.75 0.79 0.82 0.84 0.89 0.94 0.92 0.90 0.92 0.88 0.83 0.84 0.82 0.84 0.82 0.83 0.85 0.89 0.97 1.02 1.01 0.92 0.87 0.85 0.80 0.76 0.78 0.83 0.85 0.82 0.72 0.65 0.61 0.53

GEFSNE_prec_meanprecacc_126.txt.gz
Total_Precipitation_Accumulation
1.19 1.23 1.29 1.27 1.31 1.44 1.56 1.60 1.58 1.52 1.52 1.51 1.26 1.11 1.02 1.03 1.12 1.18 1.30 1.09 0.74 0.58 0.52 0.52 0.57 0.65 0.73 0.87 1.01 1.17 1.31 1.45 1.59 1.76 1.99 2.18 2.34 2.49
1.32 1.41 1.40 1.34 1.38 1.45 1.50 1.62 1.73 1.74 1.63 1.48 1.31 1.19 1.11 0.97 0.99 0.97 1.04 0.91 0.67 0.56 0.50 0.47 0.46 0.48 0.54 0.62 0.70 0.83 0.96 1.14 1.32 1.45 1.58 1.71 1.85 1.98
1.22 1.23 1.23 1.26 1.31 1.26 1.34 1.47 1.63 1.78 1.64 1.53 1.45 1.41 1.34 1.25 1.11 0.91 0.79 0.70 0.62 0.59 0.51 0.46 0.46 0.46 0.46 0.48 0.53 0.61 0.72 0.88 1.05 1.17 1.29 1.47 1.60 1.71
1.24 1.16 1.08 1.15 1.24 1.25 1.35 1.37 1.43 1.65 1.65 1.62 1.60 1.62 1.53 1.35 1.25 1.11 0.91 0.79 0.75 0.69 0.58 0.50 0.44 0.44 0.43 0.44 0.49 0.54 0.63 0.74 0.88 0.99 1.04 1.08 1.23 1.43
1.19 1.12 1.04 1.05 1.09 1.19 1.30 1.34 1.33 1.40 1.55 1.58 1.60 1.68 1.65 1.45 1.28 1.15 1.05 1.07 0.98 0.81 0.63 0.53 0.47 0.43 0.42 0.41 0.49 0.58 0.71 0.73 0.74 0.83 0.93 1.00 1.05 1.11
0.94 0.89 0.93 1.03 1.09 1.09 1.08 1.11 1.16 1.26 1.35 1.42 1.50 1.63 1.68 1.60 1.39 1.26 1.25 1.20 1.12 0.86 0.73 0.60 0.51 0.44 0.40 0.36 0.39 0.53 0.68 0.75 0.81 0.83 0.87 0.93 1.00 1.05
0.76 0.62 0.62 0.78 0.92 0.95 0.88 0.93 0.98 1.06 1.12 1.22 1.33 1.47 1.57 1.66 1.48 1.30 1.25 1.31 1.27 1.14 0.99 0.80 0.66 0.58 0.55 0.51 0.44 0.44 0.50 0.61 0.72 0.87 1.02 1.12 1.17 1.18
0.63 0.58 0.56 0.56 0.58 0.60 0.64 0.69 0.77 0.86 0.99 1.15 1.27 1.34 1.38 1.48 1.57 1.53 1.47 1.42 1.42 1.39 1.39 1.31 1.04 0.94 0.90 0.84 0.67 0.46 0.37 0.44 0.58 0.71 0.95 1.22 1.46 1.53
0.55 0.59 0.48 0.41 0.44 0.44 0.44 0.42 0.44 0.49 0.63 0.86 1.09 1.18 1.29 1.33 1.55 1.60 1.62 1.72 1.72 1.71 1.68 1.73 1.46 1.19 1.01 0.93 0.83 0.60 0.45 0.39 0.47 0.60 0.71 0.92 1.21 1.53
0.50 0.54 0.55 0.54 0.53 0.54 0.52 0.48 0.43 0.40 0.42 0.49 0.71 0.96 1.18 1.41 1.50 1.57 1.65 1.71 1.73 1.62 1.56 1.67 1.60 1.47 1.24 0.94 0.83 0.73 0.61 0.52 0.50 0.57 0.59 0.63 0.77 0.99
0.57 0.57 0.58 0.59 0.56 0.44 0.45 0.48 0.48 0.49 0.41 0.41 0.50 0.72 0.92 1.03 1.26 1.46 1.59 1.51 1.45 1.27 1.13 1.23 1.34 1.40 1.44 1.27 0.97 0.87 0.75 0.63 0.60 0.61 0.59 0.58 0.63 0.70
0.78 0.72 0.59 0.52 0.47 0.37 0.41 0.53 0.51 0.51 0.56 0.51 0.44 0.50 0.64 0.78 0.85 0.97 1.19 1.31 1.20 1.14 0.97 0.88 0.89 1.01 1.14 1.09 0.94 0.89 0.89 0.81 0.68 0.66 0.66 0.66 0.71 0.67
0.93 0.88 0.81 0.64 0.47 0.41 0.41 0.48 0.51 0.54 0.65 0.69 0.66 0.65 0.75 0.87 0.84 0.80 0.89 1.03 1.05 0.91 0.84 0.91 0.87 0.80 0.78 0.81 0.82 0.75 0.79 0.90 0.88 0.78 0.73 0.74 0.79 0.83
1.15 1.11 1.03 0.81 0.60 0.52 0.48 0.46 0.42 0.42 0.52 0.63 0.66 0.64 0.68 0.78 0.86 0.85 0.88 0.92 0.95 0.87 0.84 0.92 0.99 0.94 0.79 0.67 0.65 0.61 0.60 0.69 0.84 1.02 1.10 1.12 1.01 0.97
1.27 1.28 1.06 0.85 0.70 0.56 0.52 0.51 0.45 0.42 0.53 0.58 0.58 0.59 0.60 0.70 0.90 1.02 1.05 1.05 1.01 0.87 0.75 0.74 0.84 0.98 0.94 0.74 0.61 0.56 0.57 0.64 0.76 0.94 1.06 1.17 1.24 1.24
1.12 1.18 1.05 0.89 0.78 0.67 0.62 0.59 0.55 0.56 0.63 0.64 0.65 0.69 0.72 0.79 0.88 0.97 1.06 1.10 1.06 0.87 0.76 0.74 0.78 0.92 0.98 0.85 0.72 0.65 0.64 0.72 0.79 0.96 1.15 1.22 1.25 1.32
1.15 1.20 1.22 1.09 0.97 0.87 0.83 0.85 0.84 0.78 0.72 0.74 0.79 0.81 0.81 0.82 0.88 0.94 1.01 1.04 0.99 0.82 0.71 0.77 0.86 0.97 0.97 0.93 0.84 0.69 0.66 0.65 0.67 0.81 1.01 1.12 1.21 1.29
1.08 1.12 1.21 1.20 1.12 1.04 0.99 1.01 1.01 0.95 0.89 0.90 0.89 0.88 0.86 0.84 0.87 0.91 0.95 0.96 0.92 0.84 0.75 0.71 0.83 0.96 1.00 0.89 0.72 0.64 0.61 0.57 0.62 0.76 0.85 0.86 0.84 0.93
0.93 1.00 1.10 1.15 1.12 1.10 1.05 1.03 1.00 1.03 1.04 1.00 0.96 0.95 0.93 0.87 0.85 0.88 0.90 0.94 0.93 0.91 0.88 0.87 0.84 0.80 0.78 0.68 0.60 0.54 0.60 0.61 0.68 0.74 0.80 0.75 0.68 0.73
0.85 0.92 0.98 1.03 1.05 1.07 1.07 1.07 1.04 1.05 1.03 1.01 0.96 0.94 0.93 0.88 0.88 0.89 0.87 0.88 0.94 0.96 0.97 0.90 0.83 0.74 0.65 0.67 0.70 0.65 0.56 0.68 0.73 0.69 0.68 0.70 0.68 0.63
0.83 0.87 0.89 0.90 0.94 0.98 0.99 1.03 1.02 0.98 0.96 0.99 0.95 0.90 0.91 0.90 0.89 0.89 0.90 0.91 0.91 0.94 0.91 0.79 0.74 0.86 0.97 0.97 0.85 0.74 0.70 0.67 0.75 0.75 0.74 0.74 0.71 0.68
0.81 0.84 0.80 0.79 0.84 0.90 0.94 0.99 0.98 0.99 1.00 0.97 0.94 0.91 0.89 0.88 0.86 0.87 0.90 0.91 0.91 0.90 0.89 0.93 0.99 1.02 1.01 0.89 0.76 0.78 0.85 0.80 0.78 0.80 0.75 0.75 0.70 0.61
0.77 0.73 0.69 0.71 0.76 0.81 0.84 0.87 0.91 0.96 0.95 0.93 0.96 0.93 0.88 0.88 0.87 0.88 0.87 0.87 0.89 0.94 1.01 1.07 1.05 0.97 0.92 0.91 0.86 0.81 0.82 0.87 0.90 0.87 0.76 0.69 0.63 0.55

GEFSNE_prec_meanprecacc_132.txt.gz
Total_Precipitation_Accumulation
1.20 1.24 1.29 1.27 1.31 1.44 1.56 1.60 1.59 1.53 1.53 1.52 1.26 1.11 1.02 1.04 1.13 1.18 1.30 1.09 0.74 0.58 0.52 0.52 0.57 0.65 0.73 0.87 1.01 1.17 1.31 1.45 1.59 1.76 1.99 2.18 2.34 2.50
1.34 1.42 1.41 1.34 1.39 1.45 1.50 1.62 1.73 1.75 1.64 1.49 1.31 1.19 1.12 0.97 0.99 0.97 1.04 0.91 0.67 0.56 0.50 0.47 0.46 0.48 0.54 0.62 0.70 0.83 0.96 1.14 1.32 1.45 1.58 1.71 1.85 1.98
1.25 1.25 1.24 1.26 1.31 1.26 1.34 1.47 1.64 1.78 1.65 1.53 1.45 1.41 1.34 1.25 1.11 0.91 0.79 0.70 0.62 0.59 0.51 0.46 0.46 0.46 0.46 0.48 0.53 0.61 0.72 0.88 1.05 1.17 1.29 1.47 1.60 1.71
1.27 1.19 1.11 1.17 1.27 1.27 1.35 1.37 1.44 1.66 1.65 1.62 1.61 1.62 1.53 1.36 1.26 1.12 0.91 0.79 0.75 0.69 0.58 0.50 0.44 0.44 0.43 0.44 0.49 0.54 0.63 0.74 0.88 0.99 1.04 1.08 1.23 1.43
1.23 1.16 1.08 1.09 1.13 1.22 1.32 1.35 1.34 1.41 1.56 1.59 1.61 1.69 1.66 1.46 1.30 1.17 1.06 1.08 0.98 0.81 0.63 0.53 0.47 0.43 0.42 0.41 0.49 0.58 0.71 0.73 0.74 0.83 0.93 1.00 1.05 1.11
0.99 0.94 0.98 1.09 1.15 1.15 1.13 1.16 1.19 1.29 1.38 1.45 1.52 1.65 1.71 1.63 1.42 1.30 1.28 1.23 1.13 0.86 0.73 0.60 0.51 0.44 0.40 0.36 0.39 0.53 0.68 0.75 0.81 0.83 0.87 0.93 1.00 1.05
0.81 0.67 0.67 0.85 0.98 1.01 0.93 0.97 1.03 1.11 1.16 1.26 1.37 1.52 1.62 1.72 1.54 1.34 1.28 1.34 1.29 1.15 0.99 0.80 0.66 0.58 0.55 0.51 0.44 0.44 0.50 0.61 0.72 0.87 1.02 1.12 1.17 1.18
0.68 0.63 0.61 0.61 0.62 0.64 0.67 0.72 0.80 0.89 1.03 1.20 1.32 1.40 1.44 1.55 1.64 1.59 1.52 1.48 1.46 1.41 1.42 1.32 1.05 0.95 0.91 0.85 0.68 0.46 0.37 0.44 0.58 0.71 0.95 1.22 1.46 1.53
0.60 0.64 0.52 0.44 0.48 0.48 0.49 0.47 0.48 0.53 0.66 0.90 1.13 1.22 1.35 1.39 1.62 1.67 1.69 1.78 1.77 1.74 1.73 1.76 1.47 1.20 1.03 0.95 0.85 0.60 0.45 0.39 0.47 0.60 0.71 0.92 1.21 1.53
0.55 0.60 0.61 0.59 0.58 0.60 0.58 0.55 0.49 0.46 0.47 0.54 0.76 1.01 1.22 1.46 1.55 1.61 1.69 1.76 1.76 1.64 1.61 1.71 1.61 1.48 1.24 0.95 0.84 0.75 0.62 0.52 0.50 0.57 0.59 0.63 0.77 0.99
0.62 0.63 0.65 0.66 0.64 0.53 0.54 0.55 0.56 0.56 0.45 0.45 0.54 0.75 0.94 1.05 1.28 1.49 1.61 1.55 1.48 1.31 1.18 1.28 1.37 1.42 1.45 1.28 0.98 0.89 0.76 0.64 0.60 0.61 0.59 0.59 0.63 0.70
0.84 0.77 0.64 0.58 0.55 0.46 0.49 0.61 0.59 0.58 0.63 0.58 0.50 0.54 0.67 0.80 0.87 0.99 1.22 1.35 1.24 1.18 1.01 0.94 0.93 1.05 1.17 1.10 0.94 0.90 0.90 0.81 0.68 0.66 0.66 0.66 0.71 0.67
0.99 0.95 0.89 0.72 0.54 0.47 0.47 0.55 0.59 0.63 0.74 0.78 0.75 0.72 0.80 0.91 0.87 0.83 0.93 1.07 1.10 0.95 0.87 0.95 0.91 0.84 0.82 0.83 0.83 0.76 0.80 0.91 0.88 0.78 0.73 0.74 0.80 0.83
1.21 1.17 1.09 0.87 0.65 0.57 0.54 0.53 0.50 0.49 0.58 0.70 0.73 0.70 0.74 0.84 0.91 0.89 0.92 0.96 0.99 0.91 0.88 0.96 1.03 0.98 0.83 0.71 0.68 0.62 0.61 0.70 0.85 1.03 1.11 1.13 1.02 0.98
1.30 1.32 1.10 0.89 0.74 0.60 0.56 0.56 0.50 0.46 0.56 0.62 0.62 0.62 0.64 0.74 0.94 1.07 1.10 1.10 1.06 0.91 0.78 0.79 0.90 1.04 1.01 0.79 0.64 0.58 0.59 0.66 0.78 0.96 1.08 1.19 1.26 1.26
1.14 1.20 1.07 0.91 0.79 0.69 0.64 0.61 0.58 0.59 0.66 0.68 0.70 0.73 0.76 0.84 0.94 1.03 1.13 1.16 1.12 0.92 0.81 0.80 0.85 1.00 1.05 0.89 0.76 0.68 0.67 0.74 0.80 0.98 1.17 1.26 1.29 1.36
1.17 1.21 1.23 1.11 0.99 0.89 0.85 0.87 0.87 0.82 0.76 0.79 0.83 0.85 0.85 0.86 0.92 1.00 1.07 1.11 1.05 0.88 0.75 0.81 0.90 1.03 1.03 0.99 0.90 0.73 0.69 0.67 0.69 0.83 1.04 1.15 1.23 1.32
1.09 1.13 1.23 1.23 1.15 1.07 1.01 1.03 1.02 0.98 0.92 0.93 0.92 0.91 0.89 0.88 0.91 0.96 0.99 1.00 0.97 0.89 0.79 0.75 0.87 1.03 1.08 0.96 0.79 0.70 0.65 0.60 0.64 0.79 0.90 0.91 0.87 0.94
0.95 1.01 1.11 1.17 1.14 1.11 1.07 1.05 1.02 1.04 1.06 1.02 0.98 0.98 0.96 0.91 0.89 0.92 0.93 0.98 0.98 0.95 0.92 0.91 0.90 0.89 0.86 0.73 0.64 0.58 0.64 0.65 0.72 0.77 0.84 0.80 0.72 0.76
0.86 0.93 0.98 1.04 1.06 1.08 1.08 1.08 1.06 1.07 1.05 1.03 0.99 0.97 0.97 0.92 0.92 0.93 0.90 0.92 0.98 1.00 1.01 0.94 0.88 0.80 0.73 0.74 0.75 0.68 0.59 0.72 0.78 0.74 0.72 0.74 0.71 0.66
0.84 0.88 0.90 0.92 0.96 1.00 1.01 1.05 1.04 1.00 0.99 1.03 0.99 0.95 0.95 0.95 0.94 0.94 0.94 0.96 0.96 0.99 0.96 0.83 0.78 0.90 1.01 1.03 0.90 0.77 0.73 0.70 0.79 0.80 0.79 0.79 0.75 0.72
0.82 0.85 0.81 0.80 0.85 0.92 0.97 1.02 1.01 1.02 1.04 1.02 0.99 0.96 0.95 0.95 0.92 0.93 0.96 0.98 0.98 0.97 0.95 0.97 1.02 1.07 1.07 0.96 0.82 0.82 0.89 0.84 0.82 0.84 0.79 0.78 0.74 0.65
0.78 0.73 0.69 0.71 0.77 0.83 0.86 0.89 0.94 1.00 0.99 0.98 1.01 0.98 0.93 0.94 0.93 0.94 0.92 0.93 0.95 0.99 1.07 1.11 1.09 1.01 0.97 0.97 0.91 0.86 0.86 0.91 0.94 0.91 0.80 0.72 0.66 0.57

GEFSNE_prec_meanprecacc_138.txt.gz
Total_Precipitation_Accumulation
1.20 1.24 1.29 1.27 1.31 1.44 1.56 1.60 1.59 1.53 1.53 1.52 1.26 1.11 1.02 1.04 1.13 1.18 1.30 1.09 0.74 0.58 0.52 0.52 0.57 0.65 0.73 0.87 1.01 1.17 1.31 1.45 1.59 1.76 1.99 2.18 2.35 2.50
1.35 1.43 1.41 1.34 1.39 1.45 1.51 1.62 1.73 1.75 1.64 1.49 1.31 1.19 1.12 0.97 0.99 0.97 1.04 0.91 0.67 0.56 0.50 0.47 0.46 0.48 0.54 0.62 0.70 0.83 0.96 1.14 1.32 1.45 1.58 1.71 1.85 1.98
1.25 1.26 1.25 1.27 1.32 1.26 1.35 1.48 1.64 1.79 1.65 1.54 1.46 1.41 1.34 1.25 1.11 0.91 0.79 0.70 0.63 0.59 0.51 0.46 0.46 0.46 0.46 0.48 0.53 0.61 0.72 0.88 1.05 1.17 1.29 1.47 1.60 1.71
1.28 1.20 1.12 1.19 1.28 1.28 1.37 1.38 1.45 1.67 1.67 1.63 1.61 1.63 1.54 1.36 1.26 1.12 0.91 0.79 0.75 0.69 0.58 0.50 0.44 0.44 0.43 0.44 0.49 0.54 0.63 0.74 0.88 0.99 1.04 1.08 1.23 1.43
1.25 1.18 1.12 1.14 1.17 1.25 1.35 1.38 1.36 1.43 1.58 1.60 1.61 1.70 1.68 1.48 1.31 1.18 1.07 1.08 0.99 0.81 0.63 0.54 0.47 0.44 0.43 0.41 0.49 0.58 0.71 0.73 0.74 0.83 0.93 1.00 1.05 1.11
1.03 0.98 1.02 1.13 1.19 1.19 1.17 1.19 1.23 1.33 1.42 1.47 1.54 1.66 1.72 1.65 1.45 1.32 1.29 1.24 1.14 0.87 0.74 0.61 0.52 0.45 0.41 0.37 0.40 0.53 0.68 0.75 0.81 0.83 0.87 0.93 1.00 1.05
0.87 0.73 0.73 0.90 1.03 1.07 0.99 1.03 1.09 1.17 1.20 1.29 1.38 1.53 1.63 1.73 1.55 1.36 1.30 1.36 1.30 1.15 1.00 0.81 0.68 0.59 0.56 0.52 0.45 0.45 0.50 0.61 0.73 0.87 1.02 1.12 1.17 1.18
0.76 0.71 0.69 0.70 0.71 0.72 0.74 0.78 0.85 0.94 1.06 1.23 1.34 1.41 1.45 1.56 1.66 1.61 1.54 1.50 1.47 1.42 1.44 1.34 1.06 0.97 0.92 0.87 0.70 0.49 0.39 0.46 0.60 0.72 0.96 1.23 1.46 1.53
0.70 0.74 0.60 0.52 0.57 0.56 0.58 0.56 0.55 0.58 0.71 0.94 1.16 1.24 1.37 1.41 1.65 1.69 1.72 1.80 1.79 1.76 1.75 1.77 1.48 1.21 1.04 0.96 0.87 0.63 0.48 0.43 0.50 0.63 0.74 0.94 1.22 1.54
0.67 0.71 0.70 0.67 0.66 0.69 0.67 0.61 0.54 0.50 0.52 0.59 0.79 1.03 1.25 1.49 1.59 1.66 1.74 1.80 1.80 1.67 1.64 1.73 1.63 1.50 1.25 0.95 0.85 0.75 0.63 0.53 0.51 0.59 0.61 0.66 0.79 1.02
0.70 0.71 0.72 0.71 0.71 0.62 0.62 0.62 0.61 0.61 0.51 0.51 0.59 0.80 0.98 1.08 1.31 1.52 1.66 1.59 1.52 1.34 1.21 1.31 1.39 1.44 1.46 1.29 0.98 0.89 0.77 0.64 0.61 0.61 0.60 0.60 0.64 0.71
0.90 0.83 0.69 0.62 0.59 0.51 0.53 0.66 0.63 0.62 0.67 0.62 0.53 0.58 0.70 0.84 0.92 1.03 1.26 1.40 1.30 1.23 1.05 0.98 0.96 1.07 1.19 1.10 0.95 0.90 0.91 0.82 0.68 0.67 0.67 0.67 0.72 0.68
1.09 1.04 0.96 0.79 0.59 0.53 0.51 0.58 0.62 0.66 0.77 0.81 0.78 0.76 0.85 0.96 0.93 0.89 1.00 1.16 1.19 1.02 0.92 1.01 0.95 0.87 0.84 0.85 0.84 0.76 0.80 0.91 0.89 0.79 0.74 0.75 0.80 0.84
1.28 1.23 1.14 0.91 0.69 0.61 0.56 0.55 0.52 0.52 0.61 0.73 0.77 0.75 0.79 0.89 0.97 0.96 0.99 1.03 1.07 0.98 0.94 1.03 1.09 1.02 0.87 0.74 0.70 0.63 0.62 0.71 0.86 1.04 1.12 1.14 1.03 0.99
1.33 1.35 1.12 0.90 0.75 0.61 0.57 0.57 0.51 0.47 0.57 0.63 0.64 0.64 0.65 0.76 0.96 1.09 1.13 1.14 1.11 0.95 0.83 0.85 0.98 1.11 1.08 0.85 0.68 0.61 0.60 0.67 0.79 0.97 1.09 1.20 1.27 1.26
1.16 1.21 1.08 0.92 0.80 0.70 0.65 0.62 0.58 0.59 0.67 0.69 0.70 0.74 0.76 0.84 0.95 1.05 1.15 1.19 1.15 0.95 0.84 0.84 0.90 1.06 1.10 0.94 0.79 0.71 0.69 0.75 0.81 0.99 1.18 1.27 1.30 1.37
1.19 1.22 1.24 1.12 1.00 0.90 0.86 0.88 0.88 0.83 0.77 0.79 0.83 0.86 0.85 0.87 0.93 1.01 1.08 1.12 1.06 0.89 0.76 0.82 0.92 1.06 1.07 1.03 0.94 0.76 0.72 0.70 0.71 0.84 1.06 1.16 1.24 1.33
1.11 1.14 1.24 1.24 1.16 1.08 1.03 1.04 1.04 0.99 0.93 0.94 0.93 0.92 0.91 0.89 0.92 0.97 1.01 1.02 0.99 0.90 0.80 0.76 0.89 1.04 1.09 0.98 0.81 0.72 0.68 0.62 0.66 0.80 0.91 0.92 0.88 0.96
0.98 1.03 1.13 1.19 1.15 1.13 1.08 1.06 1.02 1.05 1.07 1.03 0.99 0.99 0.98 0.93 0.91 0.94 0.95 1.01 1.00 0.98 0.95 0.94 0.93 0.92 0.88 0.75 0.64 0.59 0.66 0.66 0.73 0.79 0.86 0.81 0.73 0.77
0.88 0.94 1.00 1.05 1.07 1.09 1.09 1.09 1.06 1.07 1.06 1.04 1.00 0.99 0.99 0.94 0.94 0.95 0.92 0.94 1.00 1.02 1.03 0.96 0.90 0.84 0.76 0.76 0.76 0.69 0.60 0.73 0.79 0.75 0.73 0.76 0.73 0.68
0.84 0.88 0.90 0.92 0.96 1.00 1.01 1.05 1.05 1.01 1.00 1.03 1.00 0.96 0.98 0.99 0.98 0.98 0.98 0.98 0.99 1.01 0.98 0.85 0.80 0.92 1.04 1.05 0.91 0.77 0.74 0.71 0.81 0.82 0.81 0.81 0.78 0.75
0.82 0.85 0.81 0.80 0.86 0.92 0.97 1.02 1.02 1.03 1.05 1.02 1.00 0.98 0.97 0.97 0.95 0.95 0.99 1.00 1.00 1.00 0.97 0.99 1.04 1.09 1.10 0.98 0.84 0.84 0.90 0.86 0.84 0.87 0.82 0.82 0.77 0.68
0.78 0.73 0.70 0.72 0.77 0.83 0.87 0.90 0.94 1.01 0.99 0.99 1.02 0.99 0.94 0.95 0.94 0.95 0.94 0.95 0.98 1.02 1.10 1.14 1.11 1.04 1.00 1.00 0.93 0.87 0.87 0.92 0.95 0.93 0.82 0.74 0.67 0.59

GEFSNE_prec_meanprecacc_144.txt.gz
Total_Precipitation_Accumulation
1.21 1.25 1.30 1.27 1.32 1.44 1.56 1.60 1.59 1.54 1.54 1.52 1.26 1.11 1.02 1.04 1.13 1.18 1.30 1.09 0.74 0.58 0.52 0.52 0.57 0.65 0.73 0.87 1.01 1.17 1.31 1.45 1.59 1.76 1.99 2.19 2.35 2.51
1.36 1.44 1.42 1.34 1.39 1.45 1.51 1.62 1.74 1.76 1.65 1.49 1.31 1.19 1.12 0.97 0.99 0.97 1.04 0.91 0.68 0.57 0.51 0.47 0.46 0.48 0.54 0.62 0.70 0.83 0.96 1.14 1.33 1.45 1.58 1.71 1.85 1.98
1.28 1.28 1.26 1.27 1.32 1.26 1.35 1.48 1.65 1.79 1.66 1.54 1.46 1.41 1.34 1.25 1.11 0.91 0.80 0.71 0.63 0.59 0.52 0.47 0.46 0.47 0.46 0.48 0.53 0.61 0.72 0.88 1.05 1.17 1.29 1.47 1.60 1.71
1.31 1.23 1.14 1.21 1.30 1.30 1.38 1.39 1.46 1.68 1.67 1.63 1.61 1.63 1.54 1.36 1.26 1.12 0.92 0.79 0.75 0.69 0.59 0.51 0.45 0.45 0.44 0.44 0.49 0.54 0.63 0.74 0.88 0.99 1.04 1.08 1.23 1.43
1.29 1.22 1.15 1.18 1.20 1.28 1.37 1.39 1.38 1.44 1.59 1.61 1.62 1.70 1.68 1.48 1.32 1.18 1.07 1.09 0.99 0.82 0.65 0.55 0.48 0.44 0.43 0.42 0.49 0.58 0.71 0.73 0.74 0.84 0.93 1.00 1.05 1.11
1.11 1.05 1.08 1.18 1.22 1.23 1.20 1.22 1.26 1.35 1.44 1.48 1.54 1.66 1.72 1.65 1.45 1.32 1.30 1.25 1.15 0.88 0.75 0.62 0.53 0.45 0.41 0.38 0.40 0.53 0.68 0.75 0.81 0.83 0.87 0.94 1.01 1.06
0.98 0.82 0.79 0.95 1.09 1.13 1.06 1.08 1.13 1.20 1.23 1.31 1.40 1.54 1.64 1.74 1.56 1.37 1.31 1.36 1.31 1.16 1.01 0.82 0.69 0.60 0.57 0.53 0.45 0.46 0.51 0.62 0.73 0.87 1.02 1.12 1.18 1.19
0.85 0.78 0.76 0.76 0.78 0.80 0.83 0.87 0.93 1.01 1.14 1.30 1.39 1.45 1.47 1.58 1.67 1.62 1.55 1.51 1.48 1.43 1.45 1.35 1.07 0.98 0.93 0.88 0.71 0.50 0.41 0.47 0.61 0.73 0.96 1.23 1.46 1.54
0.78 0.81 0.67 0.58 0.63 0.64 0.68 0.68 0.66 0.69 0.80 1.02 1.22 1.28 1.40 1.45 1.68 1.71 1.73 1.82 1.81 1.78 1.78 1.80 1.50 1.24 1.06 0.99 0.90 0.66 0.51 0.45 0.52 0.64 0.74 0.94 1.23 1.54
0.75 0.78 0.77 0.73 0.73 0.77 0.77 0.72 0.63 0.59 0.59 0.65 0.84 1.07 1.29 1.52 1.62 1.69 1.78 1.84 1.83 1.70 1.68 1.77 1.66 1.53 1.28 0.99 0.89 0.79 0.66 0.55 0.53 0.60 0.62 0.66 0.79 1.03
0.79 0.79 0.80 0.79 0.79 0.69 0.68 0.67 0.67 0.67 0.56 0.56 0.63 0.83 1.02 1.12 1.35 1.56 1.69 1.63 1.55 1.36 1.23 1.34 1.41 1.47 1.49 1.32 1.02 0.93 0.80 0.67 0.62 0.63 0.61 0.61 0.65 0.72
0.99 0.92 0.78 0.70 0.66 0.56 0.58 0.70 0.68 0.67 0.72 0.66 0.57 0.62 0.74 0.87 0.96 1.08 1.31 1.45 1.34 1.27 1.08 1.03 1.01 1.13 1.26 1.18 1.01 0.96 0.96 0.85 0.71 0.68 0.69 0.68 0.74 0.70
1.16 1.10 1.01 0.84 0.64 0.58 0.57 0.64 0.67 0.71 0.81 0.85 0.83 0.80 0.89 1.00 0.96 0.93 1.04 1.21 1.24 1.08 0.98 1.07 1.02 0.94 0.92 0.92 0.91 0.82 0.85 0.95 0.93 0.82 0.76 0.77 0.83 0.86
1.34 1.28 1.18 0.96 0.73 0.64 0.60 0.58 0.56 0.55 0.63 0.75 0.79 0.78 0.82 0.92 0.99 0.97 1.01 1.05 1.10 1.01 0.97 1.07 1.14 1.07 0.92 0.79 0.75 0.68 0.67 0.75 0.90 1.07 1.15 1.18 1.06 1.02
1.39 1.40 1.17 0.95 0.79 0.64 0.59 0.60 0.53 0.49 0.59 0.65 0.65 0.66 0.66 0.77 0.97 1.10 1.14 1.15 1.12 0.97 0.85 0.87 1.00 1.14 1.11 0.89 0.72 0.65 0.65 0.71 0.83 1.01 1.13 1.24 1.31 1.30
1.21 1.26 1.13 0.96 0.84 0.73 0.67 0.64 0.60 0.61 0.68 0.70 0.71 0.74 0.77 0.85 0.96 1.06 1.16 1.20 1.16 0.96 0.85 0.85 0.91 1.07 1.12 0.96 0.82 0.73 0.72 0.79 0.85 1.03 1.22 1.30 1.33 1.41
1.25 1.29 1.30 1.17 1.04 0.94 0.90 0.91 0.91 0.86 0.79 0.81 0.85 0.87 0.87 0.88 0.95 1.03 1.10 1.13 1.07 0.90 0.77 0.83 0.93 1.07 1.08 1.04 0.95 0.78 0.74 0.73 0.74 0.87 1.08 1.18 1.26 1.35
1.17 1.19 1.30 1.29 1.21 1.12 1.06 1.07 1.06 1.01 0.95 0.96 0.95 0.94 0.92 0.90 0.93 0.98 1.01 1.02 0.99 0.91 0.81 0.77 0.90 1.06 1.11 0.99 0.83 0.74 0.70 0.64 0.68 0.83 0.94 0.94 0.89 0.97
1.03 1.08 1.17 1.23 1.19 1.15 1.10 1.07 1.03 1.05 1.07 1.03 0.99 1.00 0.98 0.93 0.91 0.94 0.96 1.01 1.00 0.98 0.95 0.95 0.94 0.93 0.90 0.77 0.66 0.60 0.67 0.68 0.74 0.80 0.87 0.83 0.75 0.78
0.91 0.97 1.03 1.08 1.09 1.10 1.10 1.09 1.06 1.08 1.06 1.05 1.01 0.99 0.99 0.94 0.94 0.95 0.92 0.94 1.00 1.02 1.03 0.97 0.91 0.85 0.78 0.78 0.78 0.70 0.61 0.75 0.81 0.77 0.75 0.78 0.75 0.70
0.85 0.89 0.91 0.93 0.97 1.01 1.01 1.06 1.05 1.02 1.01 1.04 1.01 0.97 0.98 0.99 0.98 0.98 0.98 0.99 0.99 1.02 0.99 0.86 0.81 0.93 1.05 1.06 0.92 0.78 0.75 0.74 0.84 0.85 0.84 0.85 0.82 0.78
0.82 0.85 0.81 0.81 0.86 0.92 0.97 1.03 1.02 1.04 1.06 1.03 1.00 0.99 0.97 0.98 0.95 0.96 0.99 1.01 1.01 1.01 0.98 1.00 1.05 1.10 1.11 1.00 0.86 0.86 0.93 0.88 0.87 0.89 0.85 0.85 0.81 0.72
0.78 0.74 0.70 0.72 0.77 0.83 0.87 0.90 0.95 1.02 1.01 1.00 1.03 1.00 0.95 0.96 0.94 0.96 0.95 0.96 0.99 1.03 1.11 1.14 1.12 1.05 1.02 1.02 0.95 0.90 0.90 0.95 0.97 0.95 0.84 0.76 0.70 0.61

GEFSNE_prec_meanprecacc_150.txt.gz
Total_Precipitation_Accumulation
1.26 1.31 1.35 1.30 1.34 1.46 1.57 1.62 1.62 1.58 1.58 1.55 1.28 1.11 1.03 1.05 1.14 1.19 1.32 1.11 0.74 0.58 0.53 0.53 0.57 0.65 0.73 0.87 1.02 1.17 1.32 1.45 1.59 1.77 1.99 2.19 2.35 2.51
1.43 1.51 1.48 1.38 1.43 1.49 1.53 1.64 1.76 1.79 1.68 1.50 1.33 1.20 1.13 0.98 1.00 0.98 1.05 0.92 0.68 0.58 0.51 0.48 0.46 0.49 0.54 0.62 0.71 0.84 0.96 1.14 1.33 1.45 1.58 1.71 1.85 1.98
1.35 1.34 1.31 1.33 1.37 1.30 1.38 1.51 1.68 1.82 1.68 1.56 1.47 1.42 1.35 1.27 1.13 0.94 0.81 0.72 0.64 0.60 0.52 0.48 0.47 0.47 0.47 0.49 0.53 0.61 0.72 0.88 1.06 1.17 1.30 1.47 1.60 1.71
1.38 1.30 1.21 1.26 1.34 1.34 1.42 1.43 1.49 1.71 1.70 1.65 1.63 1.65 1.57 1.39 1.29 1.16 0.93 0.81 0.76 0.70 0.59 0.51 0.45 0.45 0.44 0.44 0.50 0.55 0.63 0.74 0.89 0.99 1.04 1.09 1.23 1.43
1.37 1.30 1.22 1.24 1.25 1.33 1.41 1.43 1.42 1.48 1.63 1.64 1.65 1.74 1.72 1.52 1.35 1.21 1.09 1.11 1.01 0.83 0.65 0.55 0.48 0.45 0.43 0.42 0.49 0.59 0.71 0.73 0.75 0.84 0.94 1.01 1.05 1.11
1.19 1.12 1.14 1.24 1.28 1.29 1.25 1.28 1.32 1.40 1.49 1.53 1.58 1.70 1.76 1.69 1.48 1.34 1.32 1.27 1.17 0.89 0.75 0.62 0.53 0.46 0.41 0.38 0.40 0.54 0.69 0.76 0.82 0.83 0.88 0.94 1.01 1.06
1.06 0.88 0.84 1.01 1.14 1.18 1.10 1.14 1.19 1.26 1.29 1.37 1.46 1.59 1.69 1.79 1.60 1.40 1.33 1.38 1.33 1.18 1.03 0.83 0.70 0.61 0.57 0.53 0.46 0.46 0.51 0.62 0.74 0.88 1.03 1.13 1.18 1.19
0.92 0.85 0.82 0.81 0.82 0.84 0.86 0.90 0.97 1.06 1.20 1.37 1.47 1.52 1.54 1.64 1.73 1.67 1.59 1.54 1.51 1.45 1.48 1.36 1.09 1.00 0.95 0.90 0.73 0.51 0.41 0.48 0.62 0.74 0.97 1.24 1.47 1.54
0.88 0.89 0.73 0.63 0.70 0.70 0.74 0.73 0.70 0.73 0.85 1.07 1.28 1.34 1.47 1.52 1.75 1.78 1.79 1.88 1.85 1.82 1.82 1.82 1.53 1.27 1.08 1.00 0.91 0.67 0.52 0.46 0.53 0.66 0.76 0.96 1.25 1.56
0.87 0.89 0.87 0.82 0.81 0.85 0.85 0.78 0.69 0.65 0.66 0.71 0.90 1.15 1.36 1.59 1.67 1.73 1.81 1.88 1.87 1.74 1.72 1.80 1.68 1.55 1.30 1.00 0.90 0.79 0.66 0.56 0.54 0.61 0.64 0.68 0.82 1.05
0.95 0.93 0.91 0.90 0.90 0.78 0.77 0.77 0.76 0.75 0.63 0.62 0.68 0.87 1.05 1.15 1.37 1.58 1.71 1.66 1.58 1.39 1.27 1.37 1.44 1.49 1.52 1.34 1.03 0.94 0.81 0.68 0.64 0.64 0.63 0.63 0.67 0.74
1.15 1.11 0.96 0.86 0.80 0.67 0.67 0.78 0.75 0.72 0.76 0.69 0.61 0.64 0.76 0.90 0.99 1.10 1.34 1.49 1.39 1.31 1.13 1.07 1.04 1.15 1.28 1.19 1.03 0.98 0.98 0.88 0.73 0.71 0.71 0.70 0.76 0.71
1.29 1.22 1.14 0.97 0.75 0.66 0.63 0.69 0.72 0.74 0.84 0.89 0.87 0.83 0.92 1.03 1.00 0.96 1.08 1.25 1.29 1.11 1.00 1.09 1.04 0.96 0.94 0.94 0.92 0.83 0.86 0.97 0.95 0.84 0.78 0.79 0.84 0.88
1.45 1.39 1.28 1.05 0.80 0.70 0.64 0.62 0.59 0.58 0.65 0.78 0.82 0.80 0.85 0.95 1.02 1.00 1.03 1.08 1.13 1.04 1.00 1.09 1.16 1.09 0.94 0.81 0.76 0.69 0.68 0.77 0.91 1.09 1.17 1.19 1.07 1.03
1.46 1.48 1.24 1.02 0.87 0.72 0.68 0.67 0.59 0.54 0.64 0.70 0.70 0.70 0.70 0.81 1.01 1.14 1.18 1.19 1.16 1.00 0.88 0.91 1.03 1.17 1.14 0.92 0.75 0.68 0.67 0.74 0.85 1.03 1.15 1.26 1.33 1.32
1.28 1.35 1.23 1.07 0.94 0.83 0.77 0.74 0.69 0.70 0.76 0.76 0.77 0.80 0.82 0.89 0.99 1.09 1.19 1.23 1.20 0.99 0.89 0.88 0.94 1.10 1.15 0.99 0.86 0.77 0.75 0.81 0.88 1.06 1.25 1.33 1.35 1.43
1.36 1.39 1.39 1.26 1.13 1.02 0.98 1.00 1.00 0.95 0.88 0.88 0.91 0.93 0.92 0.92 0.98 1.05 1.13 1.16 1.10 0.92 0.80 0.86 0.96 1.10 1.11 1.07 0.98 0.81 0.77 0.76 0.77 0.90 1.12 1.21 1.29 1.38
1.24 1.27 1.37 1.36 1.28 1.19 1.13 1.12 1.11 1.05 0.99 1.00 0.98 0.97 0.95 0.92 0.95 1.00 1.04 1.05 1.02 0.93 0.83 0.79 0.92 1.08 1.13 1.01 0.84 0.76 0.72 0.67 0.71 0.86 0.97 0.98 0.92 1.00
1.07 1.13 1.22 1.27 1.22 1.18 1.12 1.10 1.06 1.08 1.09 1.04 1.01 1.01 1.00 0.95 0.93 0.96 0.97 1.02 1.01 0.99 0.96 0.95 0.95 0.94 0.92 0.78 0.68 0.62 0.69 0.70 0.77 0.83 0.90 0.86 0.78 0.81
0.94 1.01 1.06 1.10 1.11 1.12 1.11 1.11 1.07 1.09 1.07 1.06 1.01 1.00 1.00 0.95 0.95 0.96 0.93 0.95 1.00 1.03 1.04 0.98 0.92 0.87 0.81 0.81 0.80 0.71 0.63 0.77 0.83 0.79 0.77 0.81 0.78 0.73
0.87 0.91 0.92 0.94 0.97 1.01 1.02 1.06 1.06 1.02 1.01 1.05 1.01 0.97 0.99 1.00 0.99 0.99 0.99 1.00 1.00 1.03 1.00 0.87 0.82 0.95 1.07 1.09 0.95 0.81 0.79 0.77 0.87 0.88 0.87 0.88 0.85 0.81
0.82 0.86 0.82 0.81 0.86 0.92 0.97 1.03 1.02 1.04 1.06 1.03 1.01 0.99 0.98 0.98 0.96 0.96 1.00 1.02 1.02 1.01 0.99 1.01 1.06 1.11 1.13 1.03 0.89 0.90 0.98 0.94 0.92 0.93 0.88 0.89 0.84 0.75
0.78 0.74 0.70 0.72 0.77 0.83 0.88 0.91 0.96 1.02 1.01 1.00 1.04 1.00 0.96 0.96 0.95 0.96 0.96 0.97 0.99 1.04 1.11 1.15 1.12 1.07 1.04 1.04 0.98 0.93 0.93 0.99 1.02 0.99 0.88 0.80 0.72 0.63

GEFSNE_prec_meanprecacc_156.txt.gz
Total_Precipitation_Accumulation
1.35 1.40 1.42 1.36 1.38 1.49 1.63 1.69 1.71 1.67 1.65 1.59 1.30 1.13 1.05 1.08 1.19 1.23 1.36 1.16 0.77 0.59 0.53 0.53 0.57 0.65 0.73 0.87 1.02 1.17 1.32 1.46 1.60 1.77 2.00 2.20 2.36 2.53
1.57 1.65 1.61 1.48 1.52 1.56 1.60 1.72 1.84 1.88 1.75 1.55 1.36 1.22 1.15 1.02 1.06 1.02 1.10 0.97 0.70 0.59 0.52 0.49 0.47 0.49 0.55 0.62 0.71 0.84 0.96 1.15 1.33 1.45 1.59 1.71 1.85 1.99
1.49 1.48 1.46 1.47 1.50 1.39 1.45 1.58 1.75 1.90 1.76 1.63 1.53 1.48 1.41 1.31 1.18 0.97 0.83 0.74 0.66 0.63 0.55 0.49 0.48 0.48 0.48 0.50 0.54 0.62 0.73 0.89 1.06 1.17 1.30 1.47 1.60 1.71
1.52 1.43 1.33 1.38 1.45 1.43 1.51 1.52 1.59 1.82 1.80 1.75 1.72 1.73 1.63 1.43 1.34 1.20 0.95 0.83 0.79 0.75 0.62 0.53 0.46 0.46 0.45 0.45 0.50 0.55 0.63 0.74 0.89 0.99 1.04 1.09 1.23 1.43
1.51 1.41 1.32 1.35 1.36 1.43 1.52 1.52 1.51 1.56 1.70 1.72 1.72 1.81 1.78 1.57 1.41 1.27 1.14 1.17 1.03 0.86 0.68 0.57 0.50 0.46 0.44 0.43 0.50 0.59 0.71 0.73 0.75 0.84 0.94 1.01 1.05 1.12
1.33 1.24 1.24 1.33 1.38 1.40 1.36 1.39 1.42 1.50 1.58 1.62 1.66 1.77 1.82 1.74 1.55 1.41 1.38 1.33 1.21 0.91 0.77 0.64 0.55 0.47 0.42 0.39 0.41 0.54 0.69 0.76 0.82 0.84 0.88 0.94 1.01 1.06
1.18 0.99 0.95 1.14 1.27 1.30 1.20 1.26 1.31 1.37 1.40 1.47 1.55 1.67 1.76 1.87 1.68 1.46 1.39 1.44 1.37 1.21 1.05 0.86 0.72 0.64 0.60 0.55 0.47 0.47 0.52 0.63 0.74 0.88 1.03 1.13 1.18 1.19
1.07 0.99 0.94 0.95 0.94 0.93 0.94 0.97 1.04 1.14 1.28 1.46 1.55 1.61 1.63 1.73 1.81 1.72 1.65 1.60 1.56 1.50 1.53 1.40 1.12 1.04 0.99 0.93 0.77 0.55 0.44 0.50 0.64 0.75 0.98 1.24 1.47 1.55
1.05 1.07 0.86 0.75 0.83 0.83 0.85 0.80 0.76 0.79 0.91 1.15 1.36 1.43 1.56 1.60 1.83 1.85 1.87 1.95 1.91 1.87 1.89 1.87 1.56 1.32 1.12 1.05 0.96 0.70 0.54 0.48 0.56 0.68 0.77 0.97 1.25 1.56
1.04 1.05 1.03 0.97 0.94 0.99 0.99 0.91 0.79 0.74 0.74 0.78 0.99 1.25 1.46 1.69 1.76 1.80 1.88 1.94 1.92 1.80 1.78 1.85 1.73 1.60 1.33 1.04 0.92 0.82 0.68 0.58 0.55 0.62 0.64 0.69 0.82 1.05
1.09 1.07 1.06 1.03 1.01 0.90 0.90 0.91 0.88 0.86 0.71 0.71 0.77 0.95 1.13 1.22 1.43 1.63 1.77 1.71 1.62 1.43 1.32 1.42 1.48 1.53 1.55 1.37 1.05 0.96 0.82 0.68 0.64 0.65 0.63 0.63 0.67 0.74
1.27 1.23 1.08 0.95 0.88 0.77 0.78 0.91 0.89 0.86 0.88 0.80 0.69 0.71 0.82 0.95 1.02 1.14 1.38 1.54 1.44 1.35 1.16 1.10 1.07 1.18 1.30 1.21 1.05 1.00 0.99 0.89 0.74 0.71 0.71 0.70 0.76 0.71
1.40 1.32 1.23 1.05 0.82 0.75 0.71 0.77 0.80 0.83 0.92 0.95 0.94 0.90 0.98 1.09 1.04 1.01 1.13 1.30 1.33 1.17 1.04 1.13 1.07 0.99 0.98 0.96 0.94 0.85 0.89 0.99 0.96 0.85 0.79 0.80 0.85 0.89
1.55 1.47 1.36 1.13 0.88 0.77 0.71 0.67 0.65 0.64 0.72 0.86 0.91 0.90 0.94 1.05 1.11 1.08 1.10 1.13 1.17 1.09 1.06 1.15 1.22 1.14 0.99 0.85 0.79 0.71 0.70 0.79 0.94 1.11 1.19 1.21 1.09 1.04
1.52 1.53 1.29 1.06 0.91 0.76 0.74 0.74 0.67 0.63 0.74 0.82 0.82 0.82 0.82 0.93 1.12 1.24 1.26 1.25 1.20 1.04 0.92 0.95 1.08 1.22 1.21 0.99 0.80 0.71 0.69 0.75 0.87 1.05 1.17 1.29 1.35 1.35
1.32 1.38 1.25 1.09 0.97 0.86 0.81 0.77 0.74 0.76 0.84 0.87 0.88 0.91 0.91 0.98 1.06 1.15 1.24 1.28 1.24 1.04 0.93 0.93 0.99 1.15 1.20 1.04 0.90 0.81 0.78 0.85 0.91 1.09 1.28 1.36 1.38 1.46
1.38 1.42 1.43 1.30 1.17 1.07 1.03 1.06 1.07 1.03 0.96 0.95 0.98 1.00 0.98 0.98 1.03 1.09 1.17 1.20 1.13 0.95 0.82 0.88 0.98 1.13 1.15 1.11 1.03 0.86 0.82 0.80 0.82 0.95 1.15 1.24 1.31 1.40
1.26 1.29 1.40 1.39 1.31 1.22 1.16 1.16 1.15 1.09 1.03 1.03 1.02 1.00 0.98 0.95 0.97 1.02 1.06 1.07 1.04 0.95 0.84 0.81 0.94 1.10 1.15 1.04 0.88 0.81 0.77 0.73 0.77 0.91 1.02 1.02 0.96 1.04
1.08 1.14 1.24 1.28 1.25 1.21 1.15 1.12 1.07 1.09 1.10 1.06 1.02 1.03 1.01 0.96 0.93 0.96 0.98 1.04 1.03 1.00 0.98 0.97 0.97 0.97 0.95 0.81 0.70 0.64 0.72 0.73 0.80 0.86 0.94 0.91 0.82 0.84
0.95 1.02 1.08 1.12 1.13 1.13 1.12 1.11 1.08 1.09 1.08 1.06 1.02 1.01 1.01 0.96 0.96 0.97 0.94 0.96 1.01 1.04 1.05 0.99 0.94 0.89 0.83 0.83 0.82 0.73 0.65 0.79 0.87 0.83 0.81 0.84 0.81 0.75
0.87 0.91 0.93 0.94 0.98 1.01 1.02 1.06 1.06 1.02 1.01 1.05 1.02 0.98 1.00 1.01 1.00 0.99 0.99 1.00 1.01 1.04 1.01 0.88 0.84 0.96 1.08 1.11 0.97 0.83 0.82 0.80 0.91 0.92 0.90 0.92 0.89 0.85
0.83 0.86 0.82 0.81 0.86 0.93 0.98 1.03 1.03 1.04 1.07 1.04 1.01 1.00 0.98 0.99 0.96 0.97 1.00 1.02 1.02 1.02 1.00 1.02 1.07 1.12 1.14 1.05 0.92 0.92 1.01 0.97 0.95 0.96 0.92 0.93 0.88 0.78
0.78 0.74 0.70 0.72 0.78 0.83 0.88 0.91 0.96 1.03 1.02 1.01 1.04 1.01 0.97 0.97 0.96 0.97 0.96 0.97 1.00 1.04 1.12 1.15 1.13 1.07 1.05 1.06 1.00 0.95 0.96 1.01 1.05 1.03 0.93 0.84 0.76 0.67

GEFSNE_prec_meanprecacc_162.txt.gz
Total_Precipitation_Accumulation
1.40 1.44 1.47 1.40 1.45 1.57 1.70 1.78 1.78 1.73 1.70 1.63 1.35 1.20 1.14 1.17 1.27 1.29 1.41 1.23 0.84 0.66 0.59 0.58 0.60 0.66 0.74 0.88 1.02 1.18 1.32 1.47 1.61 1.78 2.01 2.21 2.38 2.55
1.63 1.71 1.66 1.55 1.59 1.63 1.67 1.81 1.95 1.97 1.82 1.59 1.40 1.27 1.22 1.09 1.13 1.08 1.14 1.01 0.74 0.62 0.55 0.52 0.50 0.51 0.57 0.64 0.72 0.85 0.97 1.15 1.34 1.46 1.59 1.72 1.86 2.00
1.57 1.55 1.52 1.53 1.57 1.47 1.52 1.64 1.82 1.98 1.83 1.67 1.56 1.52 1.49 1.40 1.25 1.03 0.86 0.77 0.68 0.66 0.57 0.52 0.50 0.51 0.50 0.52 0.56 0.64 0.74 0.90 1.07 1.18 1.30 1.48 1.61 1.72
1.61 1.51 1.39 1.44 1.51 1.49 1.57 1.58 1.65 1.88 1.87 1.79 1.75 1.77 1.69 1.52 1.41 1.24 0.98 0.85 0.82 0.78 0.65 0.56 0.49 0.49 0.48 0.48 0.53 0.58 0.66 0.77 0.91 1.01 1.06 1.10 1.24 1.44
1.61 1.49 1.40 1.42 1.44 1.53 1.61 1.59 1.56 1.61 1.77 1.77 1.75 1.84 1.80 1.61 1.47 1.31 1.17 1.20 1.07 0.89 0.71 0.61 0.54 0.49 0.47 0.45 0.52 0.61 0.74 0.76 0.77 0.86 0.96 1.02 1.06 1.12
1.45 1.35 1.36 1.46 1.51 1.52 1.46 1.45 1.47 1.56 1.65 1.68 1.70 1.81 1.86 1.79 1.60 1.45 1.41 1.37 1.25 0.94 0.81 0.69 0.59 0.50 0.45 0.40 0.43 0.56 0.71 0.78 0.84 0.86 0.90 0.96 1.02 1.06
1.32 1.12 1.08 1.27 1.39 1.42 1.30 1.36 1.41 1.45 1.47 1.55 1.62 1.74 1.82 1.94 1.75 1.52 1.44 1.47 1.40 1.25 1.10 0.89 0.75 0.66 0.62 0.58 0.50 0.50 0.56 0.66 0.77 0.91 1.05 1.15 1.20 1.20
1.19 1.11 1.08 1.11 1.09 1.06 1.05 1.07 1.13 1.22 1.37 1.55 1.64 1.67 1.69 1.80 1.86 1.78 1.70 1.64 1.59 1.52 1.56 1.42 1.14 1.06 1.01 0.95 0.80 0.57 0.47 0.53 0.66 0.76 0.99 1.25 1.49 1.56
1.18 1.20 1.00 0.89 0.98 0.98 1.00 0.93 0.86 0.88 0.99 1.22 1.43 1.49 1.61 1.64 1.88 1.90 1.91 1.99 1.95 1.90 1.93 1.90 1.59 1.34 1.14 1.07 0.98 0.73 0.57 0.51 0.58 0.70 0.80 0.99 1.28 1.59
1.17 1.17 1.15 1.09 1.06 1.11 1.13 1.04 0.91 0.85 0.83 0.85 1.05 1.31 1.52 1.75 1.81 1.85 1.93 1.98 1.97 1.85 1.84 1.90 1.77 1.65 1.36 1.07 0.96 0.85 0.71 0.60 0.57 0.65 0.67 0.71 0.84 1.06
1.26 1.23 1.20 1.16 1.15 1.03 1.01 1.01 0.99 0.95 0.79 0.77 0.83 1.01 1.18 1.27 1.48 1.69 1.83 1.78 1.69 1.49 1.38 1.49 1.55 1.60 1.60 1.41 1.08 0.98 0.84 0.70 0.65 0.66 0.64 0.64 0.69 0.76
1.41 1.38 1.24 1.11 1.03 0.90 0.90 1.02 0.98 0.94 0.93 0.85 0.74 0.77 0.87 1.01 1.09 1.19 1.44 1.61 1.51 1.43 1.23 1.17 1.15 1.26 1.38 1.28 1.10 1.03 1.02 0.91 0.76 0.72 0.72 0.71 0.77 0.72
1.50 1.45 1.37 1.20 0.96 0.86 0.81 0.85 0.86 0.87 0.95 0.99 0.97 0.93 1.02 1.13 1.09 1.06 1.18 1.36 1.41 1.26 1.13 1.21 1.15 1.04 1.02 1.01 0.97 0.87 0.91 1.01 0.98 0.87 0.82 0.82 0.87 0.91
1.68 1.61 1.48 1.24 0.98 0.86 0.76 0.71 0.68 0.66 0.74 0.87 0.93 0.91 0.96 1.08 1.14 1.12 1.15 1.20 1.25 1.17 1.13 1.21 1.27 1.18 1.03 0.88 0.82 0.74 0.72 0.80 0.95 1.12 1.21 1.24 1.13 1.08
1.60 1.61 1.34 1.11 0.95 0.80 0.76 0.75 0.68 0.64 0.76 0.83 0.83 0.83 0.84 0.94 1.14 1.27 1.30 1.29 1.25 1.08 0.95 0.98 1.11 1.25 1.23 1.01 0.81 0.72 0.71 0.76 0.89 1.07 1.20 1.31 1.38 1.38
1.35 1.41 1.28 1.10 0.98 0.87 0.82 0.79 0.75 0.77 0.86 0.89 0.90 0.93 0.94 1.00 1.08 1.17 1.26 1.29 1.25 1.05 0.94 0.94 1.00 1.17 1.21 1.04 0.90 0.82 0.80 0.86 0.93 1.12 1.32 1.40 1.43 1.51
1.40 1.43 1.44 1.31 1.18 1.07 1.04 1.06 1.07 1.04 0.97 0.96 0.99 1.01 0.98 0.98 1.03 1.10 1.17 1.20 1.13 0.95 0.82 0.88 0.99 1.14 1.15 1.12 1.04 0.87 0.83 0.82 0.84 0.98 1.20 1.29 1.36 1.44
1.26 1.29 1.40 1.39 1.31 1.23 1.17 1.17 1.15 1.10 1.03 1.03 1.02 1.00 0.98 0.95 0.97 1.02 1.06 1.07 1.04 0.95 0.85 0.81 0.94 1.10 1.16 1.04 0.88 0.81 0.78 0.74 0.79 0.94 1.05 1.05 0.99 1.06
1.08 1.14 1.24 1.29 1.25 1.21 1.16 1.13 1.08 1.09 1.10 1.06 1.02 1.03 1.01 0.96 0.94 0.96 0.98 1.04 1.03 1.01 0.98 0.97 0.97 0.97 0.95 0.81 0.70 0.64 0.72 0.74 0.81 0.87 0.96 0.92 0.84 0.86
0.95 1.02 1.08 1.12 1.13 1.14 1.13 1.11 1.08 1.09 1.08 1.06 1.02 1.01 1.01 0.96 0.96 0.97 0.94 0.96 1.01 1.04 1.05 0.99 0.94 0.89 0.83 0.84 0.82 0.73 0.65 0.80 0.87 0.83 0.82 0.85 0.82 0.76
0.87 0.92 0.93 0.94 0.98 1.01 1.02 1.06 1.06 1.02 1.01 1.05 1.02 0.98 1.00 1.01 1.00 0.99 1.00 1.01 1.01 1.04 1.01 0.88 0.84 0.96 1.08 1.11 0.97 0.83 0.82 0.80 0.91 0.92 0.91 0.93 0.90 0.86
0.83 0.86 0.82 0.81 0.86 0.93 0.98 1.03 1.03 1.04 1.07 1.04 1.01 1.00 0.98 0.99 0.96 0.97 1.00 1.02 1.02 1.02 1.00 1.02 1.07 1.12 1.14 1.05 0.92 0.92 1.01 0.97 0.96 0.96 0.92 0.94 0.90 0.80
0.78 0.74 0.70 0.72 0.78 0.83 0.88 0.91 0.96 1.03 1.02 1.01 1.04 1.01 0.97 0.97 0.96 0.97 0.96 0.97 1.00 1.05 1.12 1.16 1.13 1.08 1.05 1.06 1.00 0.95 0.96 1.02 1.05 1.03 0.93 0.85 0.77 0.70

GEFSNE_prec_meanprecacc_168.txt.gz
Total_Precipitation_Accumulation
1.44 1.48 1.50 1.45 1.51 1.62 1.76 1.83 1.82 1.76 1.72 1.64 1.36 1.22 1.17 1.20 1.31 1.34 1.46 1.27 0.88 0.70 0.62 0.61 0.63 0.69 0.77 0.90 1.04 1.19 1.34 1.48 1.62 1.80 2.03 2.23 2.40 2.58
1.71 1.78 1.71 1.60 1.66 1.70 1.75 1.89 2.03 2.04 1.87 1.63 1.42 1.29 1.24 1.13 1.19 1.13 1.19 1.06 0.78 0.65 0.58 0.55 0.52 0.55 0.60 0.66 0.74 0.87 0.98 1.17 1.35 1.48 1.61 1.74 1.88 2.02
1.70 1.66 1.61 1.62 1.65 1.56 1.61 1.72 1.89 2.04 1.89 1.71 1.59 1.54 1.51 1.43 1.30 1.08 0.91 0.81 0.72 0.69 0.59 0.53 0.52 0.53 0.53 0.55 0.60 0.68 0.78 0.95 1.11 1.22 1.34 1.51 1.64 1.74
1.73 1.63 1.51 1.53 1.58 1.56 1.64 1.64 1.70 1.93 1.91 1.83 1.78 1.80 1.72 1.55 1.45 1.29 1.02 0.89 0.84 0.81 0.67 0.57 0.50 0.51 0.50 0.50 0.55 0.59 0.68 0.79 0.93 1.04 1.10 1.15 1.30 1.50
1.75 1.62 1.49 1.51 1.51 1.60 1.70 1.67 1.63 1.67 1.82 1.81 1.78 1.87 1.84 1.65 1.51 1.35 1.21 1.24 1.09 0.91 0.73 0.63 0.56 0.52 0.50 0.48 0.54 0.63 0.75 0.78 0.80 0.90 1.01 1.08 1.14 1.21
1.56 1.46 1.46 1.55 1.60 1.61 1.55 1.53 1.55 1.63 1.71 1.74 1.76 1.87 1.91 1.83 1.64 1.49 1.46 1.41 1.29 0.98 0.85 0.73 0.63 0.54 0.49 0.44 0.46 0.59 0.74 0.81 0.87 0.89 0.93 0.99 1.05 1.10
1.43 1.24 1.19 1.39 1.51 1.53 1.41 1.46 1.50 1.53 1.55 1.61 1.67 1.78 1.86 1.97 1.79 1.56 1.49 1.53 1.46 1.30 1.15 0.94 0.79 0.69 0.65 0.61 0.53 0.54 0.59 0.68 0.79 0.93 1.07 1.16 1.22 1.22
1.29 1.21 1.17 1.21 1.19 1.17 1.15 1.17 1.23 1.32 1.46 1.63 1.71 1.74 1.74 1.85 1.91 1.83 1.75 1.70 1.64 1.58 1.62 1.47 1.18 1.10 1.04 0.98 0.83 0.62 0.51 0.57 0.69 0.79 1.02 1.27 1.50 1.58
1.27 1.30 1.10 0.99 1.08 1.08 1.13 1.08 1.00 1.02 1.11 1.33 1.54 1.59 1.70 1.72 1.94 1.96 1.97 2.04 2.00 1.95 1.98 1.95 1.65 1.40 1.20 1.13 1.05 0.79 0.64 0.58 0.64 0.75 0.84 1.03 1.31 1.62
1.25 1.27 1.25 1.19 1.17 1.24 1.26 1.19 1.06 0.99 0.97 0.98 1.18 1.43 1.64 1.84 1.89 1.93 2.00 2.05 2.03 1.89 1.89 1.95 1.83 1.71 1.43 1.13 1.03 0.91 0.77 0.66 0.63 0.70 0.71 0.76 0.88 1.11
1.34 1.33 1.32 1.28 1.27 1.14 1.12 1.15 1.14 1.10 0.93 0.91 0.96 1.14 1.30 1.37 1.55 1.74 1.87 1.82 1.73 1.53 1.41 1.53 1.59 1.65 1.66 1.47 1.15 1.04 0.88 0.73 0.69 0.69 0.68 0.68 0.72 0.79
1.50 1.47 1.34 1.22 1.17 1.04 1.03 1.16 1.12 1.07 1.04 0.94 0.83 0.85 0.95 1.08 1.15 1.23 1.48 1.65 1.55 1.48 1.28 1.22 1.20 1.31 1.45 1.33 1.14 1.07 1.06 0.95 0.79 0.75 0.74 0.72 0.78 0.73
1.56 1.51 1.45 1.30 1.10 1.02 0.96 0.99 1.01 0.99 1.04 1.06 1.02 0.97 1.04 1.15 1.11 1.07 1.19 1.38 1.43 1.29 1.17 1.25 1.19 1.09 1.08 1.07 1.02 0.91 0.93 1.03 1.00 0.89 0.83 0.83 0.88 0.91
1.73 1.68 1.58 1.35 1.10 1.00 0.91 0.87 0.81 0.75 0.80 0.92 0.95 0.93 0.97 1.09 1.15 1.12 1.15 1.20 1.26 1.18 1.15 1.24 1.30 1.22 1.06 0.91 0.84 0.75 0.74 0.82 0.97 1.14 1.22 1.25 1.15 1.10
1.66 1.68 1.42 1.18 1.03 0.88 0.83 0.81 0.72 0.67 0.78 0.85 0.85 0.85 0.85 0.95 1.15 1.27 1.30 1.30 1.25 1.08 0.96 0.99 1.11 1.25 1.23 1.01 0.82 0.73 0.72 0.78 0.91 1.10 1.23 1.34 1.41 1.40
1.40 1.47 1.35 1.17 1.03 0.91 0.85 0.81 0.76 0.78 0.87 0.89 0.91 0.94 0.95 1.01 1.09 1.17 1.26 1.29 1.25 1.05 0.94 0.94 1.00 1.17 1.21 1.05 0.91 0.82 0.80 0.86 0.93 1.12 1.33 1.42 1.44 1.52
1.42 1.44 1.46 1.33 1.19 1.08 1.04 1.07 1.08 1.04 0.97 0.96 0.99 1.01 0.99 0.98 1.03 1.10 1.17 1.20 1.13 0.95 0.82 0.88 0.99 1.14 1.15 1.12 1.04 0.87 0.84 0.82 0.84 0.98 1.21 1.30 1.37 1.46
1.27 1.30 1.41 1.40 1.32 1.23 1.17 1.17 1.16 1.10 1.04 1.04 1.02 1.00 0.98 0.95 0.97 1.02 1.06 1.07 1.04 0.95 0.85 0.81 0.94 1.10 1.16 1.04 0.88 0.81 0.78 0.74 0.79 0.94 1.05 1.06 1.00 1.07
1.08 1.15 1.24 1.29 1.25 1.22 1.16 1.13 1.08 1.10 1.11 1.06 1.03 1.03 1.01 0.96 0.94 0.96 0.98 1.04 1.03 1.01 0.98 0.97 0.97 0.97 0.95 0.81 0.70 0.64 0.72 0.74 0.81 0.87 0.96 0.92 0.84 0.86
0.95 1.02 1.08 1.12 1.13 1.14 1.13 1.11 1.08 1.09 1.08 1.06 1.02 1.01 1.01 0.96 0.96 0.97 0.94 0.96 1.01 1.04 1.05 0.99 0.94 0.89 0.83 0.84 0.82 0.73 0.65 0.80 0.87 0.84 0.82 0.85 0.82 0.77
0.88 0.92 0.93 0.94 0.98 1.01 1.02 1.06 1.06 1.02 1.01 1.05 1.02 0.98 1.00 1.01 1.00 0.99 1.00 1.01 1.01 1.04 1.01 0.88 0.84 0.96 1.08 1.11 0.97 0.84 0.82 0.81 0.91 0.92 0.91 0.93 0.91 0.87
0.83 0.86 0.82 0.81 0.86 0.93 0.98 1.03 1.03 1.04 1.07 1.04 1.01 1.00 0.98 0.99 0.96 0.97 1.00 1.02 1.02 1.02 1.00 1.02 1.07 1.13 1.15 1.05 0.92 0.93 1.01 0.98 0.96 0.97 0.93 0.95 0.91 0.82
0.78 0.74 0.70 0.72 0.78 0.83 0.88 0.91 0.96 1.03 1.02 1.01 1.05 1.01 0.97 0.97 0.96 0.97 0.96 0.97 1.00 1.05 1.12 1.16 1.14 1.08 1.06 1.06 1.01 0.95 0.96 1.02 1.06 1.04 0.95 0.87 0.79 0.71

GEFSNE_prec_meanprecacc_174.txt.gz
Total_Precipitation_Accumulation
1.53 1.58 1.61 1.54 1.59 1.70 1.84 1.94 1.95 1.86 1.79 1.71 1.42 1.26 1.21 1.23 1.35 1.36 1.48 1.30 0.91 0.73 0.66 0.65 0.66 0.72 0.80 0.93 1.08 1.24 1.37 1.51 1.65 1.84 2.08 2.29 2.47 2.66
1.83 1.91 1.84 1.70 1.76 1.79 1.84 2.00 2.15 2.17 1.98 1.73 1.52 1.37 1.30 1.17 1.23 1.17 1.24 1.11 0.82 0.69 0.62 0.59 0.56 0.57 0.63 0.69 0.77 0.90 1.02 1.20 1.39 1.52 1.66 1.79 1.94 2.08
1.84 1.79 1.75 1.79 1.83 1.73 1.77 1.86 2.02 2.18 2.02 1.82 1.69 1.62 1.58 1.49 1.35 1.13 0.96 0.87 0.77 0.75 0.64 0.57 0.56 0.56 0.57 0.59 0.64 0.71 0.81 0.97 1.14 1.26 1.39 1.57 1.70 1.81
1.86 1.78 1.68 1.73 1.78 1.73 1.79 1.77 1.83 2.07 2.03 1.94 1.88 1.88 1.80 1.62 1.51 1.35 1.08 0.94 0.90 0.87 0.74 0.62 0.55 0.55 0.55 0.54 0.59 0.63 0.71 0.81 0.95 1.06 1.13 1.18 1.34 1.54
1.94 1.82 1.71 1.72 1.70 1.77 1.84 1.81 1.77 1.82 1.96 1.93 1.90 1.98 1.93 1.73 1.57 1.42 1.27 1.30 1.15 0.95 0.78 0.67 0.60 0.57 0.55 0.53 0.58 0.67 0.79 0.81 0.83 0.93 1.04 1.11 1.16 1.23
1.72 1.62 1.61 1.69 1.74 1.73 1.66 1.65 1.68 1.78 1.84 1.86 1.88 1.98 2.02 1.93 1.74 1.59 1.55 1.50 1.37 1.03 0.91 0.78 0.70 0.61 0.55 0.49 0.50 0.63 0.78 0.84 0.90 0.92 0.95 1.02 1.08 1.12
1.57 1.36 1.30 1.50 1.62 1.64 1.52 1.58 1.63 1.68 1.70 1.77 1.82 1.93 2.00 2.12 1.94 1.69 1.62 1.67 1.59 1.42 1.29 1.07 0.93 0.82 0.76 0.69 0.60 0.60 0.64 0.73 0.83 0.97 1.10 1.20 1.25 1.26
1.40 1.30 1.26 1.29 1.29 1.27 1.25 1.26 1.33 1.43 1.60 1.81 1.90 1.93 1.92 2.02 2.09 2.00 1.91 1.85 1.80 1.74 1.80 1.68 1.38 1.27 1.17 1.07 0.91 0.69 0.57 0.63 0.76 0.86 1.08 1.34 1.57 1.66
1.37 1.39 1.19 1.07 1.18 1.17 1.22 1.16 1.10 1.14 1.26 1.50 1.70 1.76 1.87 1.89 2.12 2.15 2.17 2.24 2.20 2.15 2.17 2.16 1.83 1.56 1.35 1.26 1.14 0.85 0.70 0.64 0.70 0.81 0.91 1.11 1.39 1.71
1.37 1.40 1.38 1.32 1.29 1.35 1.36 1.29 1.17 1.13 1.10 1.09 1.29 1.56 1.78 2.00 2.06 2.12 2.22 2.28 2.26 2.11 2.08 2.13 1.97 1.83 1.54 1.25 1.11 0.97 0.81 0.71 0.68 0.74 0.75 0.79 0.93 1.15
1.47 1.46 1.44 1.39 1.38 1.25 1.22 1.25 1.25 1.22 1.05 1.05 1.12 1.32 1.49 1.56 1.75 1.97 2.12 2.05 1.95 1.72 1.56 1.65 1.69 1.73 1.72 1.53 1.20 1.08 0.92 0.77 0.72 0.72 0.71 0.70 0.75 0.81
1.56 1.53 1.42 1.29 1.24 1.11 1.10 1.24 1.23 1.20 1.20 1.13 1.03 1.05 1.13 1.24 1.29 1.34 1.59 1.76 1.66 1.57 1.35 1.28 1.26 1.37 1.50 1.38 1.18 1.13 1.12 1.00 0.84 0.79 0.77 0.75 0.80 0.75
1.59 1.55 1.49 1.35 1.15 1.08 1.02 1.06 1.10 1.09 1.15 1.18 1.14 1.08 1.14 1.22 1.17 1.12 1.24 1.42 1.47 1.32 1.19 1.26 1.20 1.11 1.10 1.09 1.03 0.92 0.95 1.05 1.02 0.91 0.85 0.84 0.89 0.92
1.76 1.71 1.61 1.39 1.15 1.05 0.96 0.93 0.88 0.83 0.87 1.00 1.03 0.99 1.02 1.13 1.19 1.15 1.18 1.22 1.27 1.19 1.16 1.25 1.31 1.23 1.07 0.92 0.85 0.76 0.75 0.83 0.98 1.15 1.23 1.26 1.15 1.11
1.70 1.71 1.44 1.21 1.06 0.91 0.87 0.85 0.76 0.71 0.82 0.89 0.89 0.88 0.87 0.97 1.16 1.28 1.31 1.30 1.25 1.08 0.96 0.99 1.11 1.25 1.24 1.02 0.83 0.74 0.72 0.79 0.91 1.11 1.24 1.35 1.42 1.42
1.44 1.50 1.36 1.18 1.05 0.94 0.88 0.84 0.79 0.80 0.88 0.90 0.91 0.94 0.95 1.01 1.09 1.17 1.26 1.29 1.25 1.05 0.94 0.94 1.00 1.17 1.21 1.05 0.91 0.83 0.81 0.87 0.93 1.13 1.34 1.43 1.46 1.54
1.44 1.46 1.46 1.33 1.20 1.09 1.06 1.09 1.09 1.04 0.97 0.97 1.00 1.01 0.99 0.98 1.03 1.10 1.17 1.20 1.14 0.95 0.82 0.88 0.99 1.14 1.16 1.13 1.04 0.88 0.84 0.83 0.85 1.00 1.23 1.32 1.39 1.47
1.28 1.31 1.42 1.40 1.32 1.24 1.18 1.18 1.16 1.11 1.04 1.04 1.02 1.00 0.98 0.95 0.97 1.02 1.06 1.07 1.04 0.95 0.85 0.81 0.94 1.10 1.16 1.05 0.89 0.82 0.79 0.75 0.81 0.96 1.07 1.08 1.02 1.08
1.09 1.15 1.25 1.29 1.25 1.22 1.16 1.13 1.09 1.10 1.11 1.06 1.03 1.03 1.01 0.96 0.94 0.96 0.99 1.04 1.03 1.01 0.98 0.97 0.97 0.97 0.95 0.82 0.71 0.64 0.73 0.74 0.82 0.88 0.97 0.94 0.86 0.88
0.95 1.02 1.08 1.12 1.13 1.14 1.13 1.11 1.08 1.09 1.08 1.06 1.02 1.01 1.01 0.96 0.96 0.97 0.94 0.96 1.02 1.04 1.06 0.99 0.95 0.89 0.84 0.84 0.82 0.74 0.65 0.80 0.88 0.85 0.83 0.86 0.84 0.79
0.88 0.92 0.93 0.94 0.98 1.02 1.02 1.06 1.06 1.02 1.02 1.05 1.02 0.98 1.00 1.01 1.01 1.00 1.00 1.01 1.01 1.05 1.02 0.89 0.84 0.96 1.08 1.11 0.98 0.84 0.83 0.81 0.92 0.94 0.92 0.95 0.93 0.89
0.83 0.86 0.82 0.81 0.86 0.93 0.98 1.03 1.03 1.04 1.07 1.04 1.01 1.00 0.99 0.99 0.97 0.97 1.01 1.03 1.03 1.03 1.01 1.02 1.07 1.13 1.15 1.06 0.93 0.95 1.04 0.99 0.97 0.97 0.94 0.96 0.93 0.84
0.78 0.74 0.70 0.72 0.78 0.83 0.88 0.91 0.96 1.03 1.02 1.01 1.05 1.01 0.97 0.98 0.96 0.97 0.96 0.98 1.00 1.05 1.12 1.16 1.14 1.09 1.06 1.07 1.01 0.96 0.97 1.03 1.07 1.05 0.96 0.88 0.81 0.72

GEFSNE_prec_meanprecacc_180.txt.gz
Total_Precipitation_Accumulation
1.75 1.80 1.80 1.70 1.75 1.86 2.01 2.12 2.14 2.05 1.96 1.85 1.54 1.38 1.33 1.32 1.41 1.40 1.52 1.36 0.95 0.76 0.68 0.68 0.68 0.73 0.81 0.95 1.10 1.26 1.40 1.54 1.68 1.87 2.11 2.33 2.53 2.73
2.03 2.12 2.05 1.88 1.92 1.95 2.02 2.17 2.33 2.37 2.15 1.86 1.64 1.46 1.39 1.24 1.30 1.23 1.30 1.19 0.87 0.74 0.65 0.61 0.58 0.59 0.65 0.72 0.81 0.95 1.06 1.24 1.43 1.56 1.70 1.83 1.99 2.13
2.03 2.01 1.95 1.97 2.03 1.92 1.98 2.07 2.21 2.38 2.20 1.95 1.81 1.73 1.68 1.59 1.46 1.21 1.05 0.95 0.83 0.82 0.70 0.61 0.59 0.60 0.60 0.63 0.67 0.75 0.86 1.02 1.19 1.31 1.44 1.61 1.75 1.86
2.04 1.99 1.88 1.95 2.03 1.97 2.00 1.96 2.02 2.27 2.23 2.10 2.03 2.04 1.95 1.76 1.65 1.46 1.16 1.03 1.00 0.99 0.86 0.71 0.62 0.61 0.60 0.60 0.65 0.69 0.76 0.86 1.00 1.11 1.17 1.23 1.39 1.59
2.11 2.03 1.90 1.93 1.91 1.98 2.03 2.01 1.96 2.01 2.15 2.11 2.05 2.14 2.07 1.86 1.73 1.56 1.41 1.46 1.29 1.08 0.93 0.79 0.70 0.65 0.64 0.60 0.64 0.72 0.84 0.86 0.88 0.98 1.09 1.16 1.21 1.28
1.88 1.78 1.77 1.85 1.92 1.93 1.85 1.85 1.87 1.94 2.00 2.02 2.03 2.13 2.16 2.09 1.93 1.78 1.74 1.71 1.55 1.16 1.04 0.91 0.83 0.74 0.67 0.61 0.61 0.73 0.87 0.92 0.96 0.97 1.00 1.07 1.12 1.16
1.70 1.49 1.44 1.64 1.76 1.77 1.63 1.71 1.77 1.81 1.84 1.91 1.97 2.08 2.14 2.26 2.08 1.84 1.79 1.86 1.77 1.58 1.43 1.22 1.08 0.98 0.93 0.86 0.77 0.75 0.78 0.85 0.93 1.05 1.17 1.26 1.30 1.31
1.50 1.41 1.38 1.41 1.37 1.35 1.32 1.33 1.41 1.52 1.69 1.92 2.02 2.04 2.03 2.13 2.22 2.13 2.06 2.02 1.98 1.90 1.94 1.82 1.52 1.43 1.34 1.23 1.10 0.87 0.74 0.78 0.87 0.96 1.18 1.43 1.66 1.73
1.47 1.52 1.31 1.17 1.27 1.25 1.30 1.25 1.20 1.24 1.36 1.61 1.82 1.86 1.96 1.99 2.24 2.27 2.30 2.37 2.34 2.29 2.30 2.30 1.97 1.70 1.48 1.40 1.29 1.00 0.82 0.75 0.80 0.90 1.00 1.21 1.49 1.79
1.45 1.48 1.47 1.40 1.38 1.44 1.46 1.38 1.24 1.20 1.18 1.17 1.37 1.63 1.85 2.08 2.14 2.20 2.30 2.37 2.36 2.22 2.19 2.27 2.13 1.97 1.65 1.36 1.23 1.06 0.88 0.76 0.74 0.80 0.82 0.87 1.01 1.24
1.50 1.48 1.46 1.42 1.44 1.30 1.27 1.29 1.28 1.25 1.09 1.09 1.17 1.37 1.53 1.61 1.82 2.04 2.21 2.16 2.07 1.86 1.69 1.78 1.84 1.86 1.82 1.61 1.27 1.14 0.96 0.81 0.76 0.76 0.75 0.75 0.80 0.87
1.57 1.55 1.43 1.31 1.28 1.15 1.14 1.27 1.26 1.23 1.23 1.17 1.08 1.10 1.17 1.29 1.36 1.41 1.68 1.86 1.77 1.68 1.45 1.36 1.34 1.43 1.56 1.43 1.22 1.15 1.13 1.02 0.86 0.82 0.80 0.78 0.83 0.77
1.60 1.56 1.50 1.36 1.17 1.11 1.05 1.09 1.13 1.12 1.18 1.21 1.17 1.12 1.18 1.28 1.23 1.18 1.31 1.49 1.54 1.39 1.25 1.31 1.24 1.15 1.14 1.12 1.06 0.94 0.97 1.07 1.03 0.92 0.86 0.86 0.91 0.93
1.77 1.73 1.63 1.41 1.17 1.06 0.98 0.95 0.90 0.84 0.89 1.01 1.04 1.00 1.04 1.15 1.22 1.19 1.21 1.26 1.31 1.22 1.18 1.26 1.33 1.25 1.10 0.95 0.88 0.79 0.77 0.85 1.00 1.17 1.26 1.28 1.17 1.12
1.70 1.73 1.46 1.23 1.08 0.93 0.89 0.87 0.78 0.72 0.83 0.90 0.90 0.89 0.88 0.98 1.17 1.29 1.31 1.31 1.26 1.09 0.96 0.99 1.12 1.26 1.25 1.04 0.85 0.77 0.75 0.81 0.93 1.12 1.26 1.38 1.45 1.45
1.45 1.52 1.39 1.21 1.07 0.96 0.90 0.85 0.80 0.81 0.89 0.91 0.92 0.95 0.95 1.01 1.09 1.17 1.26 1.29 1.26 1.05 0.95 0.94 1.01 1.17 1.22 1.06 0.93 0.85 0.83 0.89 0.95 1.15 1.37 1.46 1.50 1.57
1.45 1.47 1.48 1.35 1.21 1.10 1.07 1.10 1.10 1.05 0.98 0.97 1.00 1.01 0.99 0.98 1.03 1.10 1.17 1.20 1.14 0.96 0.83 0.89 0.99 1.14 1.17 1.13 1.05 0.89 0.86 0.84 0.86 1.02 1.25 1.35 1.42 1.51
1.28 1.31 1.42 1.41 1.33 1.25 1.19 1.19 1.17 1.11 1.04 1.04 1.02 1.01 0.98 0.95 0.97 1.02 1.06 1.08 1.05 0.96 0.85 0.81 0.94 1.11 1.17 1.06 0.89 0.82 0.80 0.76 0.81 0.97 1.09 1.11 1.05 1.11
1.09 1.15 1.25 1.30 1.26 1.22 1.17 1.14 1.09 1.10 1.11 1.06 1.03 1.03 1.01 0.96 0.94 0.97 0.99 1.05 1.03 1.01 0.98 0.97 0.97 0.98 0.96 0.83 0.72 0.64 0.73 0.75 0.83 0.90 0.99 0.96 0.88 0.89
0.95 1.02 1.08 1.12 1.13 1.14 1.13 1.12 1.08 1.09 1.08 1.06 1.02 1.01 1.01 0.97 0.97 0.98 0.95 0.97 1.02 1.05 1.06 1.00 0.95 0.90 0.84 0.85 0.83 0.75 0.66 0.81 0.89 0.86 0.84 0.88 0.85 0.79
0.88 0.92 0.93 0.94 0.98 1.02 1.02 1.06 1.06 1.02 1.02 1.05 1.02 0.98 1.01 1.02 1.02 1.01 1.00 1.01 1.02 1.05 1.02 0.89 0.85 0.96 1.09 1.12 0.99 0.86 0.83 0.81 0.93 0.94 0.93 0.96 0.94 0.90
0.83 0.86 0.82 0.81 0.86 0.93 0.98 1.03 1.03 1.04 1.07 1.04 1.01 1.00 0.99 1.00 0.97 0.98 1.01 1.03 1.03 1.03 1.01 1.03 1.08 1.13 1.15 1.06 0.94 0.96 1.05 1.00 0.97 0.98 0.94 0.97 0.94 0.85
0.78 0.74 0.70 0.72 0.78 0.83 0.88 0.91 0.96 1.03 1.02 1.01 1.05 1.02 0.98 0.98 0.96 0.97 0.96 0.98 1.00 1.05 1.12 1.16 1.14 1.09 1.06 1.07 1.02 0.98 0.98 1.04 1.08 1.05 0.97 0.89 0.81 0.73